Observation data for Vigo Park on 11/19/2019      Previous  Date       Current Mesonet Observations  Soil Data  Daily Summary Page  Observations in Plain Language
KVP1 190600Z 23007KT 05/M03 A3001 RMK A01 T00451032  RH  057%=      5-min Rain = 0
KVP1 190601Z 23006KT 05/M03 A3001 RMK A01 T00451031  RH  058%=      5-min Rain = 0
KVP1 190602Z 23006KT 05/M03 A3001 RMK A01 T00451031  RH  058%=      5-min Rain = 0
KVP1 190603Z 23006KT 04/M03 A3001 RMK A01 T00441031  RH  058%=      5-min Rain = 0
KVP1 190604Z 23005KT 04/M03 A3001 RMK A01 T00441031  RH  058%=      5-min Rain = 0
KVP1 190605Z 23005KT 04/M03 A30 RMK A01 T00431031  RH  058%=      5-min Rain = 0
KVP1 190606Z 23005KT 04/M03 A30 RMK A01 T00431031  RH  059%=      5-min Rain = 0
KVP1 190607Z 23005KT 04/M03 A30 RMK A01 T00431031  RH  059%=      5-min Rain = 0
KVP1 190608Z 23005KT 04/M03 A30 RMK A01 T00421032  RH  058%=      5-min Rain = 0
KVP1 190609Z 23005KT 04/M03 A30 RMK A01 T00431032  RH  058%=      5-min Rain = 0
KVP1 190610Z 24004KT 05/M03 A30 RMK A01 T00451031  RH  058%=      5-min Rain = 0
KVP1 190611Z 23003KT 05/M03 A30 RMK A01 T00471031  RH  057%=      5-min Rain = 0
KVP1 190612Z 23003KT 05/M03 A30 RMK A01 T00501031  RH  056%=      5-min Rain = 0
KVP1 190613Z 23003KT 05/M03 A30 RMK A01 T00531031  RH  055%=      5-min Rain = 0
KVP1 190614Z 23003KT 06/M03 A30 RMK A01 T00551031  RH  054%=      5-min Rain = 0
KVP1 190615Z 23003KT 06/M03 A30 RMK A01 T00571031  RH  053%=      5-min Rain = 0
KVP1 190616Z 23003KT 06/M03 A30 RMK A01 T00581031  RH  053%=      5-min Rain = 0
KVP1 190617Z 24004KT 06/M03 A30 RMK A01 T00601031  RH  052%=      5-min Rain = 0
KVP1 190618Z 24004KT 06/M03 A30 RMK A01 T00621031  RH  051%=      5-min Rain = 0
KVP1 190619Z 24005KT 06/M03 A30 RMK A01 T00641031  RH  051%=      5-min Rain = 0
KVP1 190620Z 24005KT 06/M03 A30 RMK A01 T00641031  RH  051%=      5-min Rain = 0
KVP1 190621Z 24006KT 06/M03 A30 RMK A01 T00631031  RH  051%=      5-min Rain = 0
KVP1 190622Z 24006KT 06/M03 A3001 RMK A01 T00611031  RH  052%=      5-min Rain = 0
KVP1 190623Z 25006KT 06/M03 A3001 RMK A01 T00581032  RH  052%=      5-min Rain = 0
KVP1 190624Z 25005KT 06/M03 A3001 RMK A01 T00551032  RH  053%=      5-min Rain = 0
KVP1 190625Z 26005KT 05/M03 A3001 RMK A01 T00531032  RH  054%=      5-min Rain = 0
KVP1 190626Z 26005KT 05/M03 A3001 RMK A01 T00531032  RH  054%=      5-min Rain = 0
KVP1 190627Z 26005KT 05/M03 A3001 RMK A01 T00531031  RH  055%=      5-min Rain = 0
KVP1 190628Z 26006KT 05/M03 A3001 RMK A01 T00531031  RH  055%=      5-min Rain = 0
KVP1 190629Z 26006KT 05/M03 A3001 RMK A01 T00541031  RH  054%=      5-min Rain = 0
KVP1 190630Z 25006KT 06/M03 A3001 RMK A01 T00551030  RH  054%=      5-min Rain = 0
KVP1 190631Z 25006KT 06/M03 A3001 RMK A01 T00551030  RH  054%=      5-min Rain = 0
KVP1 190632Z 25005KT 06/M03 A3001 RMK A01 T00551030  RH  054%=      5-min Rain = 0
KVP1 190633Z 25005KT 06/M03 A3001 RMK A01 T00551030  RH  054%=      5-min Rain = 0
KVP1 190634Z 25005KT 05/M03 A3001 RMK A01 T00541030  RH  055%=      5-min Rain = 0
KVP1 190635Z 25005KT 05/M03 A3001 RMK A01 T00541031  RH  054%=      5-min Rain = 0
KVP1 190636Z 25004KT 06/M03 A3001 RMK A01 T00551030  RH  054%=      5-min Rain = 0
KVP1 190637Z 25004KT 06/M03 A3001 RMK A01 T00561030  RH  054%=      5-min Rain = 0
KVP1 190638Z 25003KT 06/M03 A30 RMK A01 T00561030  RH  054%=      5-min Rain = 0
KVP1 190639Z 24003KT 06/M03 A30 RMK A01 T00561030  RH  054%=      5-min Rain = 0
KVP1 190640Z 24002KT 06/M03 A30 RMK A01 T00571030  RH  053%=      5-min Rain = 0
KVP1 190641Z 23001KT 06/M03 A30 RMK A01 T00581030  RH  053%=      5-min Rain = 0
KVP1 190642Z 22001KT 06/M03 A30 RMK A01 T00601030  RH  052%=      5-min Rain = 0
KVP1 190643Z 21000KT 06/M03 A30 RMK A01 T00631030  RH  051%=      5-min Rain = 0
KVP1 190644Z 00000KT 07/M03 A30 RMK A01 T00681029  RH  050%=      5-min Rain = 0
KVP1 190645Z 00000KT 07/M03 A30 RMK A01 T00731029  RH  048%=      5-min Rain = 0
KVP1 190646Z 19001KT 08/M03 A2999 RMK A01 T00791029  RH  046%=      5-min Rain = 0
KVP1 190647Z 19001KT 08/M03 A30 RMK A01 T00831030  RH  045%=      5-min Rain = 0
KVP1 190648Z 20002KT 09/M03 A30 RMK A01 T00861031  RH  044%=      5-min Rain = 0
KVP1 190649Z 20002KT 09/M03 A30 RMK A01 T00861032  RH  043%=      5-min Rain = 0
KVP1 190650Z 20002KT 09/M03 A30 RMK A01 T00861032  RH  043%=      5-min Rain = 0
KVP1 190651Z 20002KT 09/M03 A30 RMK A01 T00861032  RH  043%=      5-min Rain = 0
KVP1 190652Z 20001KT 09/M03 A30 RMK A01 T00861032  RH  043%=      5-min Rain = 0
KVP1 190653Z 18001KT 09/M03 A2999 RMK A01 T00851033  RH  043%=      5-min Rain = 0
KVP1 190654Z 17001KT 09/M03 A2999 RMK A01 T00881033  RH  043%=      5-min Rain = 0
KVP1 190655Z 17001KT 09/M03 A2999 RMK A01 T00901032  RH  042%=      5-min Rain = 0
KVP1 190656Z 18002KT 09/M03 A2999 RMK A01 T00911033  RH  041%=      5-min Rain = 0
KVP1 190657Z 18002KT 09/M03 A2999 RMK A01 T00921033  RH  041%=      5-min Rain = 0
KVP1 190658Z 18002KT 09/M03 A2999 RMK A01 T00921033  RH  041%=      5-min Rain = 0
KVP1 190659Z 19003KT 09/M03 A2999 RMK A01 T00921034  RH  041%=      5-min Rain = 0
KVP1 190700Z 19003KT 09/M03 A2999 RMK A01 T00921034  RH  041%=      5-min Rain = 0
KVP1 190701Z 19002KT 09/M03 A2999 RMK A01 T00911033  RH  041%=      5-min Rain = 0
KVP1 190702Z 19002KT 09/M03 A2999 RMK A01 T00881034  RH  042%=      5-min Rain = 0
KVP1 190703Z 19002KT 09/M03 A2999 RMK A01 T00871034  RH  042%=      5-min Rain = 0
KVP1 190704Z 18002KT 09/M03 A2999 RMK A01 T00871034  RH  042%=      5-min Rain = 0
KVP1 190705Z 18002KT 09/M03 A2999 RMK A01 T00861033  RH  043%=      5-min Rain = 0
KVP1 190706Z 18002KT 08/M03 A2999 RMK A01 T00831033  RH  044%=      5-min Rain = 0
KVP1 190707Z 18002KT 08/M03 A2999 RMK A01 T00761034  RH  046%=      5-min Rain = 0
KVP1 190708Z 18002KT 07/M03 A2999 RMK A01 T00721033  RH  047%=      5-min Rain = 0
KVP1 190709Z 19002KT 07/M03 A2999 RMK A01 T00701033  RH  048%=      5-min Rain = 0
KVP1 190710Z 20002KT 07/M03 A2999 RMK A01 T00701032  RH  048%=      5-min Rain = 0
KVP1 190711Z 20003KT 07/M03 A2999 RMK A01 T00711032  RH  048%=      5-min Rain = 0
KVP1 190712Z 20003KT 07/M03 A2999 RMK A01 T00711032  RH  048%=      5-min Rain = 0
KVP1 190713Z 20003KT 07/M03 A2999 RMK A01 T00711032  RH  048%=      5-min Rain = 0
KVP1 190714Z 20003KT 07/M03 A2999 RMK A01 T00721032  RH  047%=      5-min Rain = 0
KVP1 190715Z 20003KT 07/M03 A2999 RMK A01 T00721034  RH  047%=      5-min Rain = 0
KVP1 190716Z 21003KT 07/M03 A2999 RMK A01 T00731034  RH  046%=      5-min Rain = 0
KVP1 190717Z 21002KT 07/M03 A2999 RMK A01 T00741033  RH  047%=      5-min Rain = 0
KVP1 190718Z 21002KT 07/M03 A2999 RMK A01 T00741033  RH  047%=      5-min Rain = 0
KVP1 190719Z 22002KT 07/M03 A2999 RMK A01 T00741033  RH  046%=      5-min Rain = 0
KVP1 190720Z 22002KT 08/M03 A2999 RMK A01 T00761034  RH  046%=      5-min Rain = 0
KVP1 190721Z 23002KT 08/M03 A2999 RMK A01 T00781033  RH  045%=      5-min Rain = 0
KVP1 190722Z 23002KT 08/M03 A2999 RMK A01 T00801033  RH  045%=      5-min Rain = 0
KVP1 190723Z 23002KT 08/M03 A2999 RMK A01 T00811034  RH  044%=      5-min Rain = 0
KVP1 190724Z 23002KT 08/M03 A2999 RMK A01 T00821034  RH  044%=      5-min Rain = 0
KVP1 190725Z 23002KT 08/M03 A2999 RMK A01 T00821032  RH  044%=      5-min Rain = 0
KVP1 190726Z 23002KT 08/M03 A2999 RMK A01 T00761032  RH  046%=      5-min Rain = 0
KVP1 190727Z 23002KT 07/M03 A2999 RMK A01 T00701033  RH  048%=      5-min Rain = 0
KVP1 190728Z 23002KT 07/M03 A2999 RMK A01 T00661033  RH  049%=      5-min Rain = 0
KVP1 190729Z 23002KT 06/M03 A2999 RMK A01 T00611033  RH  051%=      5-min Rain = 0
KVP1 190730Z 23001KT 06/M03 A2999 RMK A01 T00561033  RH  052%=      5-min Rain = 0
KVP1 190731Z 24001KT 06/M03 A2999 RMK A01 T00571033  RH  052%=      5-min Rain = 0
KVP1 190732Z 24001KT 06/M03 A2999 RMK A01 T00611032  RH  051%=      5-min Rain = 0
KVP1 190733Z 24002KT 07/M03 A2999 RMK A01 T00661032  RH  049%=      5-min Rain = 0
KVP1 190734Z 24002KT 07/M03 A2999 RMK A01 T00711033  RH  048%=      5-min Rain = 0
KVP1 190735Z 24002KT 08/M03 A2999 RMK A01 T00751033  RH  046%=      5-min Rain = 0
KVP1 190736Z 24002KT 08/M03 A2999 RMK A01 T00771033  RH  046%=      5-min Rain = 0
KVP1 190737Z 24002KT 08/M03 A2999 RMK A01 T00771033  RH  046%=      5-min Rain = 0
KVP1 190738Z 25002KT 07/M03 A2999 RMK A01 T00741031  RH  047%=      5-min Rain = 0
KVP1 190739Z 26002KT 07/M03 A2999 RMK A01 T00691031  RH  049%=      5-min Rain = 0
KVP1 190740Z 28002KT 07/M03 A2999 RMK A01 T00651030  RH  051%=      5-min Rain = 0
KVP1 190741Z 27002KT 06/M03 A2999 RMK A01 T00621029  RH  052%=      5-min Rain = 0
KVP1 190742Z 26002KT 06/M03 A2999 RMK A01 T00581029  RH  054%=      5-min Rain = 0
KVP1 190743Z 26002KT 05/M03 A2999 RMK A01 T00541028  RH  055%=      5-min Rain = 0
KVP1 190744Z 28002KT 05/M03 A2999 RMK A01 T00501028  RH  057%=      5-min Rain = 0
KVP1 190745Z 28003KT 05/M03 A2999 RMK A01 T00471028  RH  058%=      5-min Rain = 0
KVP1 190746Z 28003KT 04/M03 A2999 RMK A01 T00441028  RH  060%=      5-min Rain = 0
KVP1 190747Z 29003KT 04/M03 A2999 RMK A01 T00421027  RH  061%=      5-min Rain = 0
KVP1 190748Z 29003KT 04/M03 A2999 RMK A01 T00391027  RH  062%=      5-min Rain = 0
KVP1 190749Z 29003KT 04/M03 A2999 RMK A01 T00381026  RH  063%=      5-min Rain = 0
KVP1 190750Z 30002KT 04/M03 A2999 RMK A01 T00361026  RH  064%=      5-min Rain = 0
KVP1 190751Z 31003KT 04/M03 A2999 RMK A01 T00351026  RH  065%=      5-min Rain = 0
KVP1 190752Z 31002KT 03/M02 A2999 RMK A01 T00341024  RH  066%=      5-min Rain = 0
KVP1 190753Z 30002KT 03/M02 A2999 RMK A01 T00341023  RH  066%=      5-min Rain = 0
KVP1 190754Z 29002KT 03/M02 A2999 RMK A01 T00331023  RH  066%=      5-min Rain = 0
KVP1 190755Z 28002KT 03/M02 A2999 RMK A01 T00331023  RH  067%=      5-min Rain = 0
KVP1 190756Z 27002KT 03/M02 A2999 RMK A01 T00331023  RH  066%=      5-min Rain = 0
KVP1 190757Z 27002KT 03/M02 A2999 RMK A01 T00331023  RH  066%=      5-min Rain = 0
KVP1 190758Z 27002KT 03/M02 A2999 RMK A01 T00341023  RH  066%=      5-min Rain = 0
KVP1 190759Z 26003KT 03/M02 A2999 RMK A01 T00341023  RH  066%=      5-min Rain = 0
KVP1 190800Z 26003KT 04/M02 A2999 RMK A01 T00351022  RH  066%=      5-min Rain = 0
KVP1 190801Z 26003KT 04/M02 A2999 RMK A01 T00351020  RH  067%=      5-min Rain = 0
KVP1 190802Z 25004KT 04/M02 A2999 RMK A01 T00361019  RH  067%=      5-min Rain = 0
KVP1 190803Z 25004KT 04/M02 A2999 RMK A01 T00371019  RH  067%=      5-min Rain = 0
KVP1 190804Z 25004KT 04/M02 A2999 RMK A01 T00381019  RH  066%=      5-min Rain = 0
KVP1 190805Z 24004KT 04/M02 A2999 RMK A01 T00381021  RH  066%=      5-min Rain = 0
KVP1 190806Z 24004KT 04/M02 A2999 RMK A01 T00371022  RH  065%=      5-min Rain = 0
KVP1 190807Z 23005KT 04/M02 A30 RMK A01 T00351024  RH  065%=      5-min Rain = 0
KVP1 190808Z 23005KT 03/M03 A30 RMK A01 T00331026  RH  065%=      5-min Rain = 0
KVP1 190809Z 23005KT 03/M03 A30 RMK A01 T00301026  RH  066%=      5-min Rain = 0
KVP1 190810Z 24004KT 03/M03 A2999 RMK A01 T00291026  RH  067%=      5-min Rain = 0
KVP1 190811Z 24004KT 03/M03 A2999 RMK A01 T00281026  RH  067%=      5-min Rain = 0
KVP1 190812Z 24004KT 03/M03 A30 RMK A01 T00281026  RH  067%=      5-min Rain = 0
KVP1 190813Z 24005KT 03/M03 A30 RMK A01 T00281027  RH  068%=      5-min Rain = 0
KVP1 190814Z 25005KT 03/M03 A30 RMK A01 T00271027  RH  068%=      5-min Rain = 0
KVP1 190815Z 25005KT 03/M03 A30 RMK A01 T00261027  RH  068%=      5-min Rain = 0
KVP1 190816Z 25005KT 03/M03 A30 RMK A01 T00251026  RH  069%=      5-min Rain = 0
KVP1 190817Z 25005KT 03/M03 A30 RMK A01 T00261026  RH  068%=      5-min Rain = 0
KVP1 190818Z 25005KT 03/M03 A30 RMK A01 T00281026  RH  068%=      5-min Rain = 0
KVP1 190819Z 26005KT 03/M03 A30 RMK A01 T00281027  RH  067%=      5-min Rain = 0
KVP1 190820Z 26005KT 03/M03 A30 RMK A01 T00281027  RH  067%=      5-min Rain = 0
KVP1 190821Z 26006KT 03/M03 A30 RMK A01 T00281027  RH  067%=      5-min Rain = 0
KVP1 190822Z 25006KT 03/M03 A30 RMK A01 T00281028  RH  067%=      5-min Rain = 0
KVP1 190823Z 25006KT 03/M03 A30 RMK A01 T00271029  RH  067%=      5-min Rain = 0
KVP1 190824Z 25006KT 03/M03 A30 RMK A01 T00251029  RH  067%=      5-min Rain = 0
KVP1 190825Z 26006KT 02/M03 A30 RMK A01 T00241030  RH  067%=      5-min Rain = 0
KVP1 190826Z 26006KT 02/M03 A30 RMK A01 T00231031  RH  067%=      5-min Rain = 0
KVP1 190827Z 26006KT 02/M03 A30 RMK A01 T00221031  RH  068%=      5-min Rain = 0
KVP1 190828Z 26007KT 02/M03 A30 RMK A01 T00211032  RH  068%=      5-min Rain = 0
KVP1 190829Z 26006KT 02/M03 A3001 RMK A01 T00201032  RH  069%=      5-min Rain = 0
KVP1 190830Z 26006KT 02/M03 A3001 RMK A01 T00201031  RH  069%=      5-min Rain = 0
KVP1 190831Z 25007KT 02/M03 A3001 RMK A01 T00191031  RH  069%=      5-min Rain = 0
KVP1 190832Z 26007KT 02/M03 A3001 RMK A01 T00201030  RH  069%=      5-min Rain = 0
KVP1 190833Z 26005KT 02/M03 A30 RMK A01 T00221030  RH  069%=      5-min Rain = 0
KVP1 190834Z 26005KT 02/M03 A30 RMK A01 T00231029  RH  068%=      5-min Rain = 0
KVP1 190835Z 26005KT 03/M03 A30 RMK A01 T00251029  RH  068%=      5-min Rain = 0
KVP1 190836Z 26005KT 03/M03 A30 RMK A01 T00261030  RH  067%=      5-min Rain = 0
KVP1 190837Z 26006KT 03/M03 A30 RMK A01 T00261030  RH  067%=      5-min Rain = 0
KVP1 190838Z 26006KT 03/M03 A30 RMK A01 T00261030  RH  067%=      5-min Rain = 0
KVP1 190839Z 26006KT 03/M03 A30 RMK A01 T00271030  RH  066%=      5-min Rain = 0
KVP1 190840Z 26007KT 03/M03 A30 RMK A01 T00281030  RH  066%=      5-min Rain = 0
KVP1 190841Z 26006KT 03/M03 A30 RMK A01 T00291030  RH  065%=      5-min Rain = 0
KVP1 190842Z 26007KT 03/M03 A30 RMK A01 T00301029  RH  065%=      5-min Rain = 0
KVP1 190843Z 26006KT 03/M03 A30 RMK A01 T00321029  RH  064%=      5-min Rain = 0
KVP1 190844Z 27006KT 03/M03 A30 RMK A01 T00341029  RH  063%=      5-min Rain = 0
KVP1 190845Z 27006KT 03/M03 A30 RMK A01 T00341030  RH  063%=      5-min Rain = 0
KVP1 190846Z 27006KT 03/M03 A30 RMK A01 T00341030  RH  063%=      5-min Rain = 0
KVP1 190847Z 27006KT 03/M03 A30 RMK A01 T00341030  RH  063%=      5-min Rain = 0
KVP1 190848Z 27005KT 03/M03 A30 RMK A01 T00341030  RH  063%=      5-min Rain = 0
KVP1 190849Z 27006KT 03/M03 A30 RMK A01 T00341029  RH  063%=      5-min Rain = 0
KVP1 190850Z 27006KT 04/M03 A30 RMK A01 T00351028  RH  063%=      5-min Rain = 0
KVP1 190851Z 28006KT 04/M03 A30 RMK A01 T00361028  RH  063%=      5-min Rain = 0
KVP1 190852Z 28006KT 04/M03 A30 RMK A01 T00371028  RH  063%=      5-min Rain = 0
KVP1 190853Z 28006KT 04/M03 A30 RMK A01 T00371028  RH  063%=      5-min Rain = 0
KVP1 190854Z 28006KT 04/M03 A30 RMK A01 T00371027  RH  063%=      5-min Rain = 0
KVP1 190855Z 28006KT 04/M03 A30 RMK A01 T00361027  RH  063%=      5-min Rain = 0
KVP1 190856Z 28006KT 04/M03 A30 RMK A01 T00361026  RH  064%=      5-min Rain = 0
KVP1 190857Z 28006KT 04/M03 A30 RMK A01 T00361025  RH  064%=      5-min Rain = 0
KVP1 190858Z 28006KT 04/M03 A30 RMK A01 T00381025  RH  064%=      5-min Rain = 0
KVP1 190859Z 28006KT 04/M03 A30 RMK A01 T00391025  RH  063%=      5-min Rain = 0
KVP1 190900Z 28006KT 04/M03 A30 RMK A01 T00411025  RH  062%=      5-min Rain = 0
KVP1 190901Z 28006KT 04/M03 A30 RMK A01 T00421025  RH  062%=      5-min Rain = 0
KVP1 190902Z 28006KT 04/M02 A30 RMK A01 T00441024  RH  061%=      5-min Rain = 0
KVP1 190903Z 28005KT 05/M02 A30 RMK A01 T00461024  RH  060%=      5-min Rain = 0
KVP1 190904Z 28005KT 05/M03 A30 RMK A01 T00471025  RH  060%=      5-min Rain = 0
KVP1 190905Z 28006KT 05/M03 A30 RMK A01 T00461025  RH  060%=      5-min Rain = 0
KVP1 190906Z 28006KT 05/M03 A30 RMK A01 T00451026  RH  060%=      5-min Rain = 0
KVP1 190907Z 28006KT 05/M03 A30 RMK A01 T00451026  RH  060%=      5-min Rain = 0
KVP1 190908Z 28006KT 05/M03 A30 RMK A01 T00451026  RH  060%=      5-min Rain = 0
KVP1 190909Z 28006KT 05/M03 A30 RMK A01 T00451025  RH  060%=      5-min Rain = 0
KVP1 190910Z 28006KT 05/M03 A30 RMK A01 T00451025  RH  060%=      5-min Rain = 0
KVP1 190911Z 29006KT 05/M03 A30 RMK A01 T00451026  RH  060%=      5-min Rain = 0
KVP1 190912Z 29006KT 04/M03 A30 RMK A01 T00441026  RH  060%=      5-min Rain = 0
KVP1 190913Z 29006KT 04/M03 A30 RMK A01 T00431026  RH  061%=      5-min Rain = 0
KVP1 190914Z 29005KT 04/M03 A30 RMK A01 T00421026  RH  061%=      5-min Rain = 0
KVP1 190915Z 29005KT 04/M03 A30 RMK A01 T00411026  RH  062%=      5-min Rain = 0
KVP1 190916Z 29005KT 04/M03 A30 RMK A01 T00391026  RH  063%=      5-min Rain = 0
KVP1 190917Z 29005KT 04/M03 A30 RMK A01 T00381025  RH  063%=      5-min Rain = 0
KVP1 190918Z 29005KT 04/M03 A30 RMK A01 T00381025  RH  063%=      5-min Rain = 0
KVP1 190919Z 29005KT 04/M03 A30 RMK A01 T00381025  RH  063%=      5-min Rain = 0
KVP1 190920Z 29006KT 04/M03 A30 RMK A01 T00371026  RH  063%=      5-min Rain = 0
KVP1 190921Z 29006KT 03/M03 A30 RMK A01 T00341027  RH  064%=      5-min Rain = 0
KVP1 190922Z 29005KT 03/M03 A30 RMK A01 T00321027  RH  065%=      5-min Rain = 0
KVP1 190923Z 29005KT 03/M03 A30 RMK A01 T00321027  RH  066%=      5-min Rain = 0
KVP1 190924Z 29005KT 03/M03 A30 RMK A01 T00311027  RH  066%=      5-min Rain = 0
KVP1 190925Z 29005KT 03/M03 A30 RMK A01 T00311026  RH  066%=      5-min Rain = 0
KVP1 190926Z 29005KT 03/M03 A30 RMK A01 T00311027  RH  066%=      5-min Rain = 0
KVP1 190927Z 29005KT 03/M03 A30 RMK A01 T00311027  RH  066%=      5-min Rain = 0
KVP1 190928Z 29005KT 03/M03 A30 RMK A01 T00311027  RH  066%=      5-min Rain = 0
KVP1 190929Z 29005KT 03/M03 A30 RMK A01 T00311026  RH  066%=      5-min Rain = 0
KVP1 190930Z 28006KT 03/M03 A30 RMK A01 T00311026  RH  066%=      5-min Rain = 0
KVP1 190931Z 28006KT 03/M03 A30 RMK A01 T00311026  RH  066%=      5-min Rain = 0
KVP1 190932Z 28006KT 03/M03 A30 RMK A01 T00301026  RH  066%=      5-min Rain = 0
KVP1 190933Z 28006KT 03/M03 A30 RMK A01 T00301026  RH  067%=      5-min Rain = 0
KVP1 190934Z 28006KT 03/M03 A30 RMK A01 T00301026  RH  067%=      5-min Rain = 0
KVP1 190935Z 28006KT 03/M03 A30 RMK A01 T00301026  RH  066%=      5-min Rain = 0
KVP1 190936Z 29006KT 03/M03 A30 RMK A01 T00311026  RH  066%=      5-min Rain = 0
KVP1 190937Z 29005KT 03/M03 A30 RMK A01 T00331026  RH  065%=      5-min Rain = 0
KVP1 190938Z 29006KT 03/M03 A30 RMK A01 T00341026  RH  065%=      5-min Rain = 0
KVP1 190939Z 29006KT 04/M03 A30 RMK A01 T00351026  RH  064%=      5-min Rain = 0
KVP1 190940Z 29005KT 04/M03 A30 RMK A01 T00351026  RH  064%=      5-min Rain = 0
KVP1 190941Z 29005KT 04/M03 A30 RMK A01 T00351027  RH  064%=      5-min Rain = 0
KVP1 190942Z 29005KT 04/M03 A30 RMK A01 T00351027  RH  064%=      5-min Rain = 0
KVP1 190943Z 29005KT 04/M03 A30 RMK A01 T00351027  RH  064%=      5-min Rain = 0
KVP1 190944Z 29005KT 04/M03 A30 RMK A01 T00361027  RH  064%=      5-min Rain = 0
KVP1 190945Z 29005KT 04/M03 A30 RMK A01 T00351027  RH  064%=      5-min Rain = 0
KVP1 190946Z 29005KT 03/M03 A30 RMK A01 T00341027  RH  064%=      5-min Rain = 0
KVP1 190947Z 29005KT 03/M03 A30 RMK A01 T00341027  RH  064%=      5-min Rain = 0
KVP1 190948Z 29005KT 03/M03 A30 RMK A01 T00341027  RH  065%=      5-min Rain = 0
KVP1 190949Z 29005KT 03/M03 A30 RMK A01 T00331027  RH  065%=      5-min Rain = 0
KVP1 190950Z 29005KT 03/M03 A2999 RMK A01 T00341027  RH  065%=      5-min Rain = 0
KVP1 190951Z 29005KT 03/M03 A2999 RMK A01 T00341027  RH  064%=      5-min Rain = 0
KVP1 190952Z 29005KT 04/M03 A2999 RMK A01 T00351027  RH  064%=      5-min Rain = 0
KVP1 190953Z 29005KT 04/M03 A2999 RMK A01 T00351026  RH  064%=      5-min Rain = 0
KVP1 190954Z 28004KT 04/M03 A2999 RMK A01 T00361027  RH  064%=      5-min Rain = 0
KVP1 190955Z 28004KT 04/M03 A2999 RMK A01 T00371026  RH  063%=      5-min Rain = 0
KVP1 190956Z 28004KT 04/M03 A2999 RMK A01 T00371027  RH  063%=      5-min Rain = 0
KVP1 190957Z 28004KT 04/M03 A2999 RMK A01 T00381026  RH  063%=      5-min Rain = 0
KVP1 190958Z 28004KT 04/M03 A2999 RMK A01 T00391026  RH  062%=      5-min Rain = 0
KVP1 190959Z 28004KT 04/M03 A2999 RMK A01 T00401026  RH  062%=      5-min Rain = 0
KVP1 191000Z 28004KT 04/M03 A2999 RMK A01 T00401026  RH  062%=      5-min Rain = 0
KVP1 191001Z 28004KT 04/M03 A2999 RMK A01 T00411026  RH  062%=      5-min Rain = 0
KVP1 191002Z 28004KT 04/M03 A2999 RMK A01 T00421026  RH  061%=      5-min Rain = 0
KVP1 191003Z 28004KT 04/M03 A2999 RMK A01 T00431026  RH  061%=      5-min Rain = 0
KVP1 191004Z 27004KT 04/M03 A2999 RMK A01 T00441026  RH  060%=      5-min Rain = 0
KVP1 191005Z 27004KT 04/M03 A2999 RMK A01 T00441026  RH  060%=      5-min Rain = 0
KVP1 191006Z 27005KT 05/M03 A2999 RMK A01 T00451026  RH  060%=      5-min Rain = 0
KVP1 191007Z 26005KT 05/M03 A2999 RMK A01 T00461027  RH  059%=      5-min Rain = 0
KVP1 191008Z 26005KT 05/M03 A2999 RMK A01 T00471026  RH  059%=      5-min Rain = 0
KVP1 191009Z 25005KT 05/M03 A2999 RMK A01 T00481026  RH  059%=      5-min Rain = 0
KVP1 191010Z 25005KT 05/M03 A2999 RMK A01 T00491026  RH  059%=      5-min Rain = 0
KVP1 191016Z 26005KT 05/M03 A2999 RMK A01 T00491026  RH  058%=      5-min Rain = 0
KVP1 191017Z 26004KT 05/M03 A2999 RMK A01 T00491026  RH  058%=      5-min Rain = 0
KVP1 191018Z 27004KT 05/M03 A2999 RMK A01 T00471026  RH  059%=      5-min Rain = 0
KVP1 191019Z 27004KT 05/M03 A2999 RMK A01 T00461027  RH  059%=      5-min Rain = 0
KVP1 191020Z 27004KT 05/M03 A2999 RMK A01 T00451026  RH  060%=      5-min Rain = 0
KVP1 191021Z 27004KT 05/M03 A2999 RMK A01 T00451026  RH  060%=      5-min Rain = 0
KVP1 191022Z 27004KT 05/M03 A2999 RMK A01 T00451026  RH  060%=      5-min Rain = 0
KVP1 191023Z 27004KT 05/M03 A2999 RMK A01 T00461026  RH  060%=      5-min Rain = 0
KVP1 191024Z 26004KT 05/M03 A2999 RMK A01 T00471026  RH  059%=      5-min Rain = 0
KVP1 191025Z 26004KT 05/M03 A2999 RMK A01 T00481026  RH  059%=      5-min Rain = 0
KVP1 191026Z 26004KT 05/M03 A2999 RMK A01 T00491026  RH  058%=      5-min Rain = 0
KVP1 191027Z 26004KT 05/M03 A2999 RMK A01 T00501026  RH  058%=      5-min Rain = 0
KVP1 191028Z 26004KT 05/M03 A2999 RMK A01 T00511025  RH  058%=      5-min Rain = 0
KVP1 191029Z 25004KT 05/M03 A2999 RMK A01 T00521025  RH  057%=      5-min Rain = 0
KVP1 191030Z 25004KT 05/M03 A2999 RMK A01 T00521026  RH  057%=      5-min Rain = 0
KVP1 191031Z 25004KT 05/M03 A2999 RMK A01 T00521026  RH  057%=      5-min Rain = 0
KVP1 191032Z 25004KT 05/M03 A2999 RMK A01 T00531026  RH  057%=      5-min Rain = 0
KVP1 191033Z 25004KT 05/M03 A2999 RMK A01 T00531026  RH  057%=      5-min Rain = 0
KVP1 191034Z 25004KT 05/M03 A2999 RMK A01 T00541026  RH  056%=      5-min Rain = 0
KVP1 191035Z 25004KT 06/M03 A2999 RMK A01 T00551025  RH  056%=      5-min Rain = 0
KVP1 191036Z 25004KT 06/M03 A2999 RMK A01 T00551026  RH  056%=      5-min Rain = 0
KVP1 191037Z 25004KT 06/M03 A2999 RMK A01 T00551026  RH  056%=      5-min Rain = 0
KVP1 191038Z 25004KT 06/M03 A2998 RMK A01 T00551026  RH  056%=      5-min Rain = 0
KVP1 191039Z 24004KT 06/M03 A2998 RMK A01 T00551026  RH  056%=      5-min Rain = 0
KVP1 191040Z 24004KT 06/M03 A2998 RMK A01 T00561025  RH  056%=      5-min Rain = 0
KVP1 191041Z 24004KT 06/M03 A2998 RMK A01 T00571025  RH  055%=      5-min Rain = 0
KVP1 191042Z 24004KT 06/M03 A2998 RMK A01 T00581025  RH  055%=      5-min Rain = 0
KVP1 191043Z 24004KT 06/M03 A2998 RMK A01 T00581025  RH  055%=      5-min Rain = 0
KVP1 191044Z 24005KT 06/M03 A2998 RMK A01 T00581026  RH  055%=      5-min Rain = 0
KVP1 191045Z 24005KT 06/M03 A2998 RMK A01 T00581026  RH  055%=      5-min Rain = 0
KVP1 191046Z 24005KT 06/M03 A2998 RMK A01 T00571026  RH  055%=      5-min Rain = 0
KVP1 191047Z 23005KT 06/M03 A2998 RMK A01 T00571026  RH  055%=      5-min Rain = 0
KVP1 191048Z 23005KT 06/M03 A2998 RMK A01 T00571026  RH  055%=      5-min Rain = 0
KVP1 191049Z 23005KT 06/M03 A2998 RMK A01 T00571026  RH  055%=      5-min Rain = 0
KVP1 191050Z 23005KT 06/M03 A2998 RMK A01 T00561026  RH  055%=      5-min Rain = 0
KVP1 191051Z 23005KT 06/M03 A2998 RMK A01 T00561026  RH  056%=      5-min Rain = 0
KVP1 191052Z 23005KT 06/M03 A2998 RMK A01 T00551027  RH  056%=      5-min Rain = 0
KVP1 191053Z 23005KT 05/M03 A2998 RMK A01 T00521027  RH  056%=      5-min Rain = 0
KVP1 191054Z 23005KT 05/M03 A2998 RMK A01 T00521027  RH  057%=      5-min Rain = 0
KVP1 191055Z 23005KT 05/M03 A2998 RMK A01 T00511027  RH  057%=      5-min Rain = 0
KVP1 191056Z 23005KT 05/M03 A2998 RMK A01 T00531026  RH  057%=      5-min Rain = 0
KVP1 191057Z 23005KT 05/M03 A2998 RMK A01 T00531026  RH  057%=      5-min Rain = 0
KVP1 191058Z 23005KT 05/M03 A2998 RMK A01 T00521027  RH  057%=      5-min Rain = 0
KVP1 191059Z 23004KT 05/M03 A2998 RMK A01 T00501027  RH  057%=      5-min Rain = 0
KVP1 191100Z 23005KT 05/M03 A2998 RMK A01 T00481028  RH  058%=      5-min Rain = 0
KVP1 191101Z 23005KT 05/M03 A2998 RMK A01 T00471027  RH  059%=      5-min Rain = 0
KVP1 191102Z 23005KT 05/M03 A2998 RMK A01 T00471026  RH  059%=      5-min Rain = 0
KVP1 191103Z 23005KT 05/M03 A2998 RMK A01 T00491026  RH  058%=      5-min Rain = 0
KVP1 191104Z 23005KT 05/M03 A2998 RMK A01 T00501026  RH  058%=      5-min Rain = 0
KVP1 191105Z 23005KT 05/M03 A2998 RMK A01 T00501027  RH  058%=      5-min Rain = 0
KVP1 191106Z 23005KT 05/M03 A2998 RMK A01 T00501026  RH  058%=      5-min Rain = 0
KVP1 191107Z 22005KT 05/M03 A2998 RMK A01 T00501026  RH  058%=      5-min Rain = 0
KVP1 191108Z 22005KT 05/M03 A2998 RMK A01 T00491026  RH  058%=      5-min Rain = 0
KVP1 191109Z 22005KT 05/M03 A2998 RMK A01 T00491026  RH  058%=      5-min Rain = 0
KVP1 191110Z 22005KT 05/M03 A2998 RMK A01 T00501026  RH  058%=      5-min Rain = 0
KVP1 191111Z 22005KT 05/M03 A2998 RMK A01 T00501026  RH  058%=      5-min Rain = 0
KVP1 191112Z 21005KT 05/M03 A2998 RMK A01 T00511026  RH  058%=      5-min Rain = 0
KVP1 191113Z 21005KT 05/M03 A2998 RMK A01 T00511026  RH  057%=      5-min Rain = 0
KVP1 191114Z 21005KT 05/M03 A2998 RMK A01 T00521026  RH  057%=      5-min Rain = 0
KVP1 191115Z 21005KT 05/M03 A2998 RMK A01 T00521026  RH  057%=      5-min Rain = 0
KVP1 191116Z 21005KT 05/M03 A2998 RMK A01 T00521026  RH  057%=      5-min Rain = 0
KVP1 191117Z 22004KT 05/M03 A2998 RMK A01 T00531026  RH  057%=      5-min Rain = 0
KVP1 191118Z 22004KT 05/M03 A2998 RMK A01 T00521027  RH  057%=      5-min Rain = 0
KVP1 191119Z 22004KT 05/M03 A2998 RMK A01 T00531027  RH  057%=      5-min Rain = 0
KVP1 191120Z 22004KT 05/M03 A2998 RMK A01 T00521027  RH  057%=      5-min Rain = 0
KVP1 191121Z 22004KT 05/M03 A2998 RMK A01 T00531026  RH  057%=      5-min Rain = 0
KVP1 191122Z 22005KT 05/M03 A2998 RMK A01 T00531025  RH  057%=      5-min Rain = 0
KVP1 191123Z 23005KT 06/M02 A2998 RMK A01 T00551024  RH  057%=      5-min Rain = 0
KVP1 191124Z 23005KT 06/M02 A2997 RMK A01 T00561023  RH  056%=      5-min Rain = 0
KVP1 191125Z 23005KT 06/M02 A2997 RMK A01 T00581023  RH  056%=      5-min Rain = 0
KVP1 191126Z 23005KT 06/M02 A2997 RMK A01 T00581023  RH  056%=      5-min Rain = 0
KVP1 191127Z 23005KT 06/M02 A2997 RMK A01 T00591023  RH  055%=      5-min Rain = 0
KVP1 191128Z 23005KT 06/M02 A2997 RMK A01 T00611023  RH  055%=      5-min Rain = 0
KVP1 191129Z 23005KT 06/M02 A2997 RMK A01 T00621024  RH  054%=      5-min Rain = 0
KVP1 191130Z 23005KT 06/M03 A2997 RMK A01 T00621025  RH  054%=      5-min Rain = 0
KVP1 191131Z 23005KT 06/M03 A2997 RMK A01 T00611026  RH  054%=      5-min Rain = 0
KVP1 191132Z 23004KT 06/M03 A2997 RMK A01 T00591026  RH  054%=      5-min Rain = 0
KVP1 191133Z 23004KT 06/M03 A2997 RMK A01 T00581026  RH  055%=      5-min Rain = 0
KVP1 191134Z 23004KT 06/M03 A2997 RMK A01 T00581026  RH  055%=      5-min Rain = 0
KVP1 191135Z 22004KT 06/M03 A2997 RMK A01 T00581026  RH  055%=      5-min Rain = 0
KVP1 191136Z 22004KT 06/M03 A2997 RMK A01 T00581025  RH  055%=      5-min Rain = 0
KVP1 191137Z 22004KT 06/M03 A2997 RMK A01 T00581026  RH  055%=      5-min Rain = 0
KVP1 191138Z 22004KT 06/M03 A2997 RMK A01 T00591026  RH  055%=      5-min Rain = 0
KVP1 191139Z 22004KT 06/M03 A2997 RMK A01 T00591026  RH  055%=      5-min Rain = 0
KVP1 191140Z 22005KT 06/M03 A2997 RMK A01 T00601026  RH  054%=      5-min Rain = 0
KVP1 191141Z 22005KT 06/M03 A2997 RMK A01 T00611026  RH  054%=      5-min Rain = 0
KVP1 191142Z 22005KT 06/M03 A2997 RMK A01 T00611025  RH  054%=      5-min Rain = 0
KVP1 191143Z 22005KT 06/M03 A2997 RMK A01 T00611026  RH  054%=      5-min Rain = 0
KVP1 191144Z 22005KT 06/M03 A2997 RMK A01 T00611026  RH  053%=      5-min Rain = 0
KVP1 191145Z 22006KT 06/M03 A2997 RMK A01 T00611026  RH  053%=      5-min Rain = 0
KVP1 191146Z 22006KT 06/M03 A2996 RMK A01 T00611026  RH  054%=      5-min Rain = 0
KVP1 191147Z 21006KT 06/M03 A2996 RMK A01 T00611026  RH  054%=      5-min Rain = 0
KVP1 191148Z 21006KT 06/M03 A2996 RMK A01 T00601026  RH  054%=      5-min Rain = 0
KVP1 191149Z 21006KT 06/M03 A2996 RMK A01 T00591026  RH  054%=      5-min Rain = 0
KVP1 191150Z 21006KT 06/M03 A2996 RMK A01 T00581026  RH  055%=      5-min Rain = 0
KVP1 191151Z 21006KT 06/M03 A2996 RMK A01 T00581026  RH  055%=      5-min Rain = 0
KVP1 191152Z 21006KT 06/M03 A2996 RMK A01 T00571026  RH  055%=      5-min Rain = 0
KVP1 191153Z 21006KT 06/M03 A2996 RMK A01 T00551026  RH  056%=      5-min Rain = 0
KVP1 191154Z 21005KT 05/M03 A2996 RMK A01 T00541027  RH  056%=      5-min Rain = 0
KVP1 191155Z 21005KT 05/M03 A2996 RMK A01 T00531027  RH  057%=      5-min Rain = 0
KVP1 191156Z 21005KT 05/M03 A2996 RMK A01 T00511027  RH  057%=      5-min Rain = 0
KVP1 191157Z 21005KT 05/M03 A2996 RMK A01 T00511027  RH  057%=      5-min Rain = 0
KVP1 191158Z 21005KT 05/M03 A2996 RMK A01 T00501027  RH  058%=      5-min Rain = 0
KVP1 191159Z 21005KT 05/M03 A2996 RMK A01 T00481027  RH  058%=      5-min Rain = 0
KVP1 191200Z 21005KT 05/M03 A2996 RMK A01 T00481027  RH  059%=      5-min Rain = 0
KVP1 191201Z 21005KT 05/M03 A2996 RMK A01 T00481026  RH  059%=      5-min Rain = 0
KVP1 191202Z 21005KT 05/M03 A2996 RMK A01 T00471026  RH  059%=      5-min Rain = 0
KVP1 191203Z 21005KT 05/M03 A2996 RMK A01 T00481026  RH  059%=      5-min Rain = 0
KVP1 191204Z 21005KT 05/M03 A2996 RMK A01 T00491026  RH  059%=      5-min Rain = 0
KVP1 191205Z 21005KT 05/M03 A2996 RMK A01 T00501025  RH  058%=      5-min Rain = 0
KVP1 191206Z 21005KT 05/M02 A2996 RMK A01 T00511024  RH  058%=      5-min Rain = 0
KVP1 191207Z 21005KT 05/M02 A2996 RMK A01 T00531023  RH  058%=      5-min Rain = 0
KVP1 191208Z 21005KT 05/M02 A2996 RMK A01 T00541024  RH  057%=      5-min Rain = 0
KVP1 191209Z 21005KT 05/M03 A2996 RMK A01 T00541025  RH  057%=      5-min Rain = 0
KVP1 191210Z 21005KT 05/M02 A2996 RMK A01 T00541024  RH  057%=      5-min Rain = 0
KVP1 191211Z 21005KT 06/M02 A2996 RMK A01 T00561023  RH  057%=      5-min Rain = 0
KVP1 191212Z 21005KT 06/M02 A2996 RMK A01 T00571024  RH  056%=      5-min Rain = 0
KVP1 191213Z 21005KT 06/M02 A2996 RMK A01 T00581024  RH  056%=      5-min Rain = 0
KVP1 191214Z 21005KT 06/M02 A2996 RMK A01 T00581024  RH  055%=      5-min Rain = 0
KVP1 191215Z 21005KT 06/M02 A2996 RMK A01 T00591024  RH  055%=      5-min Rain = 0
KVP1 191216Z 21005KT 06/M02 A2996 RMK A01 T00591024  RH  055%=      5-min Rain = 0
KVP1 191217Z 21005KT 06/M02 A2996 RMK A01 T00581024  RH  056%=      5-min Rain = 0
KVP1 191218Z 20005KT 06/M02 A2996 RMK A01 T00591024  RH  056%=      5-min Rain = 0
KVP1 191219Z 20005KT 06/M02 A2996 RMK A01 T00591024  RH  055%=      5-min Rain = 0
KVP1 191220Z 20005KT 06/M02 A2996 RMK A01 T00591024  RH  055%=      5-min Rain = 0
KVP1 191221Z 20005KT 06/M02 A2996 RMK A01 T00591024  RH  055%=      5-min Rain = 0
KVP1 191222Z 20005KT 06/M02 A2996 RMK A01 T00581024  RH  055%=      5-min Rain = 0
KVP1 191223Z 20006KT 06/M02 A2996 RMK A01 T00591024  RH  055%=      5-min Rain = 0
KVP1 191224Z 21006KT 06/M02 A2996 RMK A01 T00581024  RH  055%=      5-min Rain = 0
KVP1 191225Z 21007KT 06/M02 A2996 RMK A01 T00581024  RH  055%=      5-min Rain = 0
KVP1 191226Z 22007KT 06/M03 A2996 RMK A01 T00581025  RH  056%=      5-min Rain = 0
KVP1 191227Z 22008KT 05/M03 A2996 RMK A01 T00531027  RH  056%=      5-min Rain = 0
KVP1 191228Z 23009KT 05/M03 A2996 RMK A01 T00451029  RH  058%=      5-min Rain = 0
KVP1 191229Z 23009KT 04/M03 A2997 RMK A01 T00391028  RH  062%=      5-min Rain = 0
KVP1 191230Z 23009KT 03/M03 A2997 RMK A01 T00341026  RH  065%=      5-min Rain = 0
KVP1 191231Z 23009KT 03/M02 A2997 RMK A01 T00321023  RH  067%=      5-min Rain = 0
KVP1 191232Z 23009KT 03/M02 A2997 RMK A01 T00311023  RH  068%=      5-min Rain = 0
KVP1 191233Z 23008KT 03/M02 A2997 RMK A01 T00301022  RH  068%=      5-min Rain = 0
KVP1 191234Z 23008KT 03/M02 A2996 RMK A01 T00301021  RH  069%=      5-min Rain = 0
KVP1 191235Z 23008KT 03/M02 A2996 RMK A01 T00291022  RH  069%=      5-min Rain = 0
KVP1 191236Z 23008KT 03/M02 A2996 RMK A01 T00291022  RH  069%=      5-min Rain = 0
KVP1 191237Z 23007KT 03/M02 A2996 RMK A01 T00271023  RH  070%=      5-min Rain = 0
KVP1 191238Z 23008KT 03/M02 A2996 RMK A01 T00261023  RH  070%=      5-min Rain = 0
KVP1 191239Z 23008KT 02/M02 A2996 RMK A01 T00241024  RH  071%=      5-min Rain = 0
KVP1 191240Z 23008KT 02/M03 A2996 RMK A01 T00221026  RH  071%=      5-min Rain = 0
KVP1 191241Z 23007KT 02/M03 A2996 RMK A01 T00191027  RH  072%=      5-min Rain = 0
KVP1 191242Z 24007KT 02/M03 A2996 RMK A01 T00181027  RH  072%=      5-min Rain = 0
KVP1 191243Z 24007KT 02/M03 A2996 RMK A01 T00171027  RH  073%=      5-min Rain = 0
KVP1 191244Z 24007KT 02/M03 A2996 RMK A01 T00151027  RH  073%=      5-min Rain = 0
KVP1 191245Z 24008KT 02/M03 A2996 RMK A01 T00151027  RH  074%=      5-min Rain = 0
KVP1 191246Z 24008KT 02/M03 A2996 RMK A01 T00151027  RH  074%=      5-min Rain = 0
KVP1 191247Z 24009KT 02/M03 A2997 RMK A01 T00151027  RH  073%=      5-min Rain = 0
KVP1 191248Z 24008KT 02/M03 A2997 RMK A01 T00151028  RH  073%=      5-min Rain = 0
KVP1 191249Z 25008KT 02/M03 A2997 RMK A01 T00161028  RH  073%=      5-min Rain = 0
KVP1 191250Z 25008KT 01/M03 A2997 RMK A01 T00141029  RH  073%=      5-min Rain = 0
KVP1 191251Z 25007KT 01/M03 A2997 RMK A01 T00131030  RH  073%=      5-min Rain = 0
KVP1 191252Z 25007KT 01/M03 A2997 RMK A01 T00121030  RH  073%=      5-min Rain = 0
KVP1 191253Z 25008KT 01/M03 A2997 RMK A01 T00111030  RH  074%=      5-min Rain = 0
KVP1 191254Z 25008KT 01/M03 A2997 RMK A01 T00111030  RH  074%=      5-min Rain = 0
KVP1 191255Z 25008KT 01/M03 A2997 RMK A01 T00111029  RH  075%=      5-min Rain = 0
KVP1 191256Z 25008KT 01/M03 A2997 RMK A01 T00101029  RH  075%=      5-min Rain = 0
KVP1 191257Z 25007KT 01/M03 A2997 RMK A01 T00101029  RH  075%=      5-min Rain = 0
KVP1 191258Z 25007KT 01/M03 A2997 RMK A01 T00101028  RH  076%=      5-min Rain = 0
KVP1 191259Z 25007KT 01/M03 A2997 RMK A01 T00101028  RH  076%=      5-min Rain = 0
KVP1 191300Z 25007KT 01/M03 A2997 RMK A01 T00101028  RH  076%=      5-min Rain = 0
KVP1 191301Z 25007KT 01/M03 A2997 RMK A01 T00101027  RH  076%=      5-min Rain = 0
KVP1 191302Z 25007KT 01/M03 A2997 RMK A01 T00101028  RH  076%=      5-min Rain = 0
KVP1 191303Z 24007KT 01/M03 A2997 RMK A01 T00101028  RH  076%=      5-min Rain = 0
KVP1 191304Z 24007KT 01/M03 A2997 RMK A01 T00101028  RH  076%=      5-min Rain = 0
KVP1 191305Z 24007KT 01/M03 A2997 RMK A01 T00101028  RH  075%=      5-min Rain = 0
KVP1 191306Z 24007KT 01/M03 A2997 RMK A01 T00111028  RH  075%=      5-min Rain = 0
KVP1 191307Z 25007KT 01/M03 A2997 RMK A01 T00111028  RH  075%=      5-min Rain = 0
KVP1 191308Z 25006KT 01/M03 A2997 RMK A01 T00111028  RH  075%=      5-min Rain = 0
KVP1 191309Z 24006KT 01/M03 A2997 RMK A01 T00121028  RH  075%=      5-min Rain = 0
KVP1 191310Z 24006KT 01/M03 A2997 RMK A01 T00121029  RH  074%=      5-min Rain = 0
KVP1 191311Z 24006KT 01/M03 A2997 RMK A01 T00121029  RH  075%=      5-min Rain = 0
KVP1 191312Z 24006KT 01/M03 A2997 RMK A01 T00121029  RH  075%=      5-min Rain = 0
KVP1 191313Z 24006KT 01/M03 A2997 RMK A01 T00121028  RH  074%=      5-min Rain = 0
KVP1 191314Z 24006KT 01/M03 A2997 RMK A01 T00121028  RH  074%=      5-min Rain = 0
KVP1 191315Z 24006KT 01/M03 A2997 RMK A01 T00131028  RH  074%=      5-min Rain = 0
KVP1 191316Z 24006KT 01/M03 A2997 RMK A01 T00131028  RH  074%=      5-min Rain = 0
KVP1 191317Z 24006KT 01/M03 A2997 RMK A01 T00141028  RH  074%=      5-min Rain = 0
KVP1 191318Z 23006KT 01/M03 A2997 RMK A01 T00141028  RH  074%=      5-min Rain = 0
KVP1 191319Z 23007KT 02/M03 A2997 RMK A01 T00151028  RH  073%=      5-min Rain = 0
KVP1 191320Z 23007KT 02/M03 A2997 RMK A01 T00161027  RH  073%=      5-min Rain = 0
KVP1 191321Z 23007KT 02/M03 A2997 RMK A01 T00171027  RH  073%=      5-min Rain = 0
KVP1 191322Z 22007KT 02/M03 A2997 RMK A01 T00181027  RH  072%=      5-min Rain = 0
KVP1 191323Z 22008KT 02/M03 A2997 RMK A01 T00181028  RH  072%=      5-min Rain = 0
KVP1 191324Z 22008KT 02/M03 A2997 RMK A01 T00191027  RH  071%=      5-min Rain = 0
KVP1 191325Z 22008KT 02/M03 A2997 RMK A01 T00201027  RH  071%=      5-min Rain = 0
KVP1 191326Z 21008KT 02/M03 A2997 RMK A01 T00221026  RH  071%=      5-min Rain = 0
KVP1 191327Z 21008KT 02/M03 A2997 RMK A01 T00231026  RH  070%=      5-min Rain = 0
KVP1 191328Z 21008KT 02/M03 A2997 RMK A01 T00241027  RH  069%=      5-min Rain = 0
KVP1 191329Z 21008KT 02/M03 A2997 RMK A01 T00241027  RH  069%=      5-min Rain = 0
KVP1 191330Z 21008KT 02/M03 A2997 RMK A01 T00231028  RH  069%=      5-min Rain = 0
KVP1 191331Z 21008KT 02/M03 A2997 RMK A01 T00221029  RH  069%=      5-min Rain = 0
KVP1 191332Z 22007KT 02/M03 A2997 RMK A01 T00221029  RH  069%=      5-min Rain = 0
KVP1 191333Z 22007KT 02/M03 A2997 RMK A01 T00211029  RH  069%=      5-min Rain = 0
KVP1 191334Z 22007KT 02/M03 A2997 RMK A01 T00211029  RH  069%=      5-min Rain = 0
KVP1 191335Z 22007KT 02/M03 A2997 RMK A01 T00211028  RH  070%=      5-min Rain = 0
KVP1 191336Z 22007KT 02/M03 A2997 RMK A01 T00221028  RH  070%=      5-min Rain = 0
KVP1 191337Z 22007KT 02/M03 A2997 RMK A01 T00231027  RH  069%=      5-min Rain = 0
KVP1 191338Z 22007KT 02/M03 A2997 RMK A01 T00231027  RH  069%=      5-min Rain = 0
KVP1 191339Z 22007KT 02/M03 A2997 RMK A01 T00231027  RH  069%=      5-min Rain = 0
KVP1 191340Z 22008KT 02/M03 A2997 RMK A01 T00241026  RH  070%=      5-min Rain = 0
KVP1 191341Z 22008KT 02/M03 A2997 RMK A01 T00231026  RH  070%=      5-min Rain = 0
KVP1 191342Z 22008KT 02/M03 A2997 RMK A01 T00231025  RH  070%=      5-min Rain = 0
KVP1 191343Z 22008KT 02/M03 A2997 RMK A01 T00231025  RH  071%=      5-min Rain = 0
KVP1 191344Z 22008KT 02/M03 A2997 RMK A01 T00231025  RH  071%=      5-min Rain = 0
KVP1 191345Z 22008KT 02/M03 A2997 RMK A01 T00231025  RH  071%=      5-min Rain = 0
KVP1 191346Z 22008KT 02/M03 A2997 RMK A01 T00231025  RH  071%=      5-min Rain = 0
KVP1 191347Z 22008KT 02/M02 A2997 RMK A01 T00241024  RH  071%=      5-min Rain = 0
KVP1 191348Z 22008KT 02/M02 A2997 RMK A01 T00241023  RH  071%=      5-min Rain = 0
KVP1 191349Z 22008KT 03/M02 A2997 RMK A01 T00251023  RH  071%=      5-min Rain = 0
KVP1 191350Z 22008KT 03/M02 A2997 RMK A01 T00251023  RH  071%=      5-min Rain = 0
KVP1 191351Z 22008KT 03/M02 A2997 RMK A01 T00261022  RH  071%=      5-min Rain = 0
KVP1 191352Z 22008KT 03/M02 A2997 RMK A01 T00271021  RH  070%=      5-min Rain = 0
KVP1 191353Z 22008KT 03/M02 A2997 RMK A01 T00281021  RH  070%=      5-min Rain = 0
KVP1 191354Z 22007KT 03/M02 A2996 RMK A01 T00291020  RH  070%=      5-min Rain = 0
KVP1 191355Z 22008KT 03/M02 A2996 RMK A01 T00301019  RH  070%=      5-min Rain = 0
KVP1 191356Z 22007KT 03/M02 A2996 RMK A01 T00311019  RH  070%=      5-min Rain = 0
KVP1 191357Z 21007KT 03/M02 A2996 RMK A01 T00331018  RH  070%=      5-min Rain = 0
KVP1 191358Z 21007KT 03/M02 A2996 RMK A01 T00341017  RH  069%=      5-min Rain = 0
KVP1 191359Z 21007KT 04/M02 A2996 RMK A01 T00351016  RH  069%=      5-min Rain = 0
KVP1 191400Z 21007KT 04/M02 A2996 RMK A01 T00371015  RH  069%=      5-min Rain = 0
KVP1 191401Z 21007KT 04/M01 A2996 RMK A01 T00391014  RH  068%=      5-min Rain = 0
KVP1 191402Z 21006KT 04/M01 A2997 RMK A01 T00411013  RH  068%=      5-min Rain = 0
KVP1 191403Z 21006KT 04/M01 A2997 RMK A01 T00431011  RH  068%=      5-min Rain = 0
KVP1 191404Z 21006KT 05/M01 A2997 RMK A01 T00461011  RH  067%=      5-min Rain = 0
KVP1 191405Z 21006KT 05/M01 A2997 RMK A01 T00481010  RH  066%=      5-min Rain = 0
KVP1 191406Z 21006KT 05/M01 A2997 RMK A01 T00491010  RH  066%=      5-min Rain = 0
KVP1 191407Z 21006KT 05/M01 A2997 RMK A01 T00511009  RH  065%=      5-min Rain = 0
KVP1 191408Z 21006KT 05/M01 A2997 RMK A01 T00521008  RH  065%=      5-min Rain = 0
KVP1 191409Z 21006KT 05/M01 A2997 RMK A01 T00531008  RH  065%=      5-min Rain = 0
KVP1 191410Z 21006KT 05/M01 A2997 RMK A01 T00541007  RH  065%=      5-min Rain = 0
KVP1 191411Z 21006KT 06/M01 A2997 RMK A01 T00561007  RH  064%=      5-min Rain = 0
KVP1 191412Z 20006KT 06/M01 A2997 RMK A01 T00571006  RH  064%=      5-min Rain = 0
KVP1 191413Z 20006KT 06/M01 A2997 RMK A01 T00591005  RH  063%=      5-min Rain = 0
KVP1 191414Z 20006KT 06/M00 A2997 RMK A01 T00611004  RH  063%=      5-min Rain = 0
KVP1 191415Z 20006KT 06/M00 A2997 RMK A01 T00631004  RH  062%=      5-min Rain = 0
KVP1 191416Z 20005KT 07/M00 A2997 RMK A01 T00651003  RH  062%=      5-min Rain = 0
KVP1 191417Z 20005KT 07/M00 A2997 RMK A01 T00671003  RH  061%=      5-min Rain = 0
KVP1 191418Z 20006KT 07/M00 A2997 RMK A01 T00681003  RH  060%=      5-min Rain = 0
KVP1 191419Z 19006KT 07/M00 A2997 RMK A01 T00701002  RH  060%=      5-min Rain = 0
KVP1 191420Z 19006KT 07/M00 A2997 RMK A01 T00711002  RH  060%=      5-min Rain = 0
KVP1 191421Z 19006KT 07/M00 A2997 RMK A01 T00721002  RH  059%=      5-min Rain = 0
KVP1 191422Z 19006KT 07/M00 A2997 RMK A01 T00741002  RH  059%=      5-min Rain = 0
KVP1 191423Z 18005KT 07/M00 A2997 RMK A01 T00741001  RH  059%=      5-min Rain = 0
KVP1 191424Z 18006KT 08/00 A2997 RMK A01 T00760001  RH  059%=      5-min Rain = 0
KVP1 191425Z 18006KT 08/00 A2997 RMK A01 T00780001  RH  059%=      5-min Rain = 0
KVP1 191426Z 18006KT 08/00 A2997 RMK A01 T00790003  RH  058%=      5-min Rain = 0
KVP1 191427Z 17005KT 08/00 A2997 RMK A01 T00810004  RH  058%=      5-min Rain = 0
KVP1 191428Z 17005KT 08/01 A2997 RMK A01 T00830005  RH  058%=      5-min Rain = 0
KVP1 191429Z 16004KT 09/01 A2997 RMK A01 T00850005  RH  057%=      5-min Rain = 0
KVP1 191430Z 17004KT 09/01 A2997 RMK A01 T00870007  RH  057%=      5-min Rain = 0
KVP1 191431Z 17004KT 09/01 A2997 RMK A01 T00890007  RH  056%=      5-min Rain = 0
KVP1 191432Z 18004KT 09/01 A2997 RMK A01 T00910006  RH  055%=      5-min Rain = 0
KVP1 191433Z 18004KT 09/01 A2997 RMK A01 T00920007  RH  055%=      5-min Rain = 0
KVP1 191434Z 18003KT 09/01 A2997 RMK A01 T00940008  RH  055%=      5-min Rain = 0
KVP1 191435Z 18005KT 10/01 A2997 RMK A01 T00950005  RH  054%=      5-min Rain = 0
KVP1 191436Z 18004KT 10/00 A2997 RMK A01 T00950004  RH  053%=      5-min Rain = 0
KVP1 191437Z 17003KT 10/01 A2997 RMK A01 T00950006  RH  054%=      5-min Rain = 0
KVP1 191438Z 18003KT 10/01 A2997 RMK A01 T00950006  RH  054%=      5-min Rain = 0
KVP1 191439Z 18003KT 10/01 A2997 RMK A01 T00950005  RH  053%=      5-min Rain = 0
KVP1 191440Z 18004KT 10/01 A2997 RMK A01 T00960005  RH  053%=      5-min Rain = 0
KVP1 191441Z 18004KT 10/01 A2997 RMK A01 T00960006  RH  053%=      5-min Rain = 0
KVP1 191442Z 18004KT 10/01 A2997 RMK A01 T00970006  RH  053%=      5-min Rain = 0
KVP1 191443Z 18004KT 10/01 A2997 RMK A01 T00980006  RH  053%=      5-min Rain = 0
KVP1 191444Z 18004KT 10/01 A2997 RMK A01 T01000008  RH  053%=      5-min Rain = 0
KVP1 191445Z 18004KT 10/01 A2997 RMK A01 T01020008  RH  052%=      5-min Rain = 0
KVP1 191446Z 18003KT 10/01 A2997 RMK A01 T01030009  RH  052%=      5-min Rain = 0
KVP1 191447Z 17003KT 11/01 A2997 RMK A01 T01050008  RH  051%=      5-min Rain = 0
KVP1 191448Z 17004KT 11/01 A2997 RMK A01 T01060008  RH  051%=      5-min Rain = 0
KVP1 191449Z 17003KT 11/01 A2997 RMK A01 T01080009  RH  051%=      5-min Rain = 0
KVP1 191450Z 16004KT 11/01 A2997 RMK A01 T01100011  RH  050%=      5-min Rain = 0
KVP1 191451Z 15003KT 11/01 A2997 RMK A01 T01120011  RH  050%=      5-min Rain = 0
KVP1 191452Z 14003KT 12/02 A2997 RMK A01 T01150018  RH  051%=      5-min Rain = 0
KVP1 191453Z 14003KT 12/02 A2997 RMK A01 T01160017  RH  051%=      5-min Rain = 0
KVP1 191454Z 13004KT 12/02 A2997 RMK A01 T01160020  RH  051%=      5-min Rain = 0
KVP1 191455Z 14003KT 12/02 A2997 RMK A01 T01160020  RH  052%=      5-min Rain = 0
KVP1 191456Z 15004KT 12/02 A2997 RMK A01 T01180020  RH  051%=      5-min Rain = 0
KVP1 191457Z 15004KT 12/02 A2997 RMK A01 T01210020  RH  050%=      5-min Rain = 0
KVP1 191458Z 16004KT 12/02 A2997 RMK A01 T01220019  RH  049%=      5-min Rain = 0
KVP1 191459Z 15004KT 12/02 A2997 RMK A01 T01230019  RH  049%=      5-min Rain = 0
KVP1 191500Z 15003KT 13/02 A2997 RMK A01 T01250019  RH  049%=      5-min Rain = 0
KVP1 191501Z 16005KT 13/02 A2997 RMK A01 T01260020  RH  048%=      5-min Rain = 0
KVP1 191502Z 16005KT 13/02 A2997 RMK A01 T01260016  RH  047%=      5-min Rain = 0
KVP1 191503Z 17004KT 13/02 A2997 RMK A01 T01270017  RH  047%=      5-min Rain = 0
KVP1 191504Z 17005KT 13/02 A2997 RMK A01 T01290017  RH  047%=      5-min Rain = 0
KVP1 191505Z 17005KT 13/02 A2997 RMK A01 T01300016  RH  046%=      5-min Rain = 0
KVP1 191506Z 16004KT 13/02 A2997 RMK A01 T01310016  RH  045%=      5-min Rain = 0
KVP1 191507Z 16004KT 13/02 A2997 RMK A01 T01330017  RH  045%=      5-min Rain = 0
KVP1 191508Z 15004KT 14/02 A2996 RMK A01 T01350019  RH  045%=      5-min Rain = 0
KVP1 191509Z 15004KT 14/02 A2996 RMK A01 T01360019  RH  045%=      5-min Rain = 0
KVP1 191510Z 14004KT 14/02 A2996 RMK A01 T01370023  RH  046%=      5-min Rain = 0
KVP1 191511Z 15004KT 14/02 A2996 RMK A01 T01380023  RH  046%=      5-min Rain = 0
KVP1 191512Z 15004KT 14/03 A2996 RMK A01 T01380025  RH  046%=      5-min Rain = 0
KVP1 191513Z 15003KT 14/03 A2996 RMK A01 T01380025  RH  046%=      5-min Rain = 0
KVP1 191514Z 16003KT 14/03 A2996 RMK A01 T01400027  RH  046%=      5-min Rain = 0
KVP1 191515Z 15003KT 14/03 A2996 RMK A01 T01410027  RH  046%=      5-min Rain = 0
KVP1 191516Z 16005KT 14/03 A2996 RMK A01 T01440029  RH  046%=      5-min Rain = 0
KVP1 191517Z 17005KT 15/02 A2996 RMK A01 T01470024  RH  043%=      5-min Rain = 0
KVP1 191518Z 17005KT 15/02 A2996 RMK A01 T01500024  RH  043%=      5-min Rain = 0
KVP1 191519Z 17006KT 15/02 A2996 RMK A01 T01520021  RH  041%=      5-min Rain = 0
KVP1 191520Z 18007KT 15/02 A2996 RMK A01 T01530021  RH  041%=      5-min Rain = 0
KVP1 191521Z 18008KT 16/02 A2996 RMK A01 T01550019  RH  040%=      5-min Rain = 0
KVP1 191522Z 18006KT 16/02 A2996 RMK A01 T01550018  RH  039%=      5-min Rain = 0
KVP1 191523Z 19007KT 16/02 A2997 RMK A01 T01560020  RH  040%=      5-min Rain = 0
KVP1 191524Z 19007KT 16/02 A2997 RMK A01 T01570019  RH  039%=      5-min Rain = 0
KVP1 191525Z 20007KT 16/02 A2997 RMK A01 T01580019  RH  039%=      5-min Rain = 0
KVP1 191526Z 19007KT 16/02 A2997 RMK A01 T01570018  RH  039%=      5-min Rain = 0
KVP1 191527Z 19008KT 16/02 A2997 RMK A01 T01570019  RH  039%=      5-min Rain = 0
KVP1 191528Z 19007KT 16/02 A2997 RMK A01 T01580019  RH  039%=      5-min Rain = 0
KVP1 191529Z 20007KT 16/02 A2997 RMK A01 T01570020  RH  039%=      5-min Rain = 0
KVP1 191530Z 19008KT 16/02 A2997 RMK A01 T01580019  RH  039%=      5-min Rain = 0
KVP1 191531Z 19009KT 16/02 A2997 RMK A01 T01580017  RH  038%=      5-min Rain = 0
KVP1 191532Z 19010KT 16/01 A2997 RMK A01 T01570014  RH  038%=      5-min Rain = 0
KVP1 191533Z 18008KT 16/02 A2997 RMK A01 T01560015  RH  038%=      5-min Rain = 0
KVP1 191534Z 19008KT 16/02 A2997 RMK A01 T01570017  RH  039%=      5-min Rain = 0
KVP1 191535Z 19006KT 16/02 A2997 RMK A01 T01570017  RH  039%=      5-min Rain = 0
KVP1 191536Z 19008KT 16/02 A2997 RMK A01 T01580019  RH  039%=      5-min Rain = 0
KVP1 191537Z 19009KT 16/02 A2997 RMK A01 T01580016  RH  038%=      5-min Rain = 0
KVP1 191538Z 19010KT 16/01 A2997 RMK A01 T01560013  RH  038%=      5-min Rain = 0
KVP1 191539Z 19009KT 16/01 A2997 RMK A01 T01550014  RH  038%=      5-min Rain = 0
KVP1 191540Z 19010KT 15/01 A2997 RMK A01 T01540014  RH  038%=      5-min Rain = 0
KVP1 191541Z 19008KT 15/01 A2997 RMK A01 T01540012  RH  038%=      5-min Rain = 0
KVP1 191542Z 19008KT 15/01 A2997 RMK A01 T01540014  RH  038%=      5-min Rain = 0
KVP1 191543Z 18008KT 16/02 A2997 RMK A01 T01560015  RH  039%=      5-min Rain = 0
KVP1 191544Z 19009KT 16/02 A2997 RMK A01 T01570015  RH  038%=      5-min Rain = 0
KVP1 191545Z 19008KT 16/01 A2997 RMK A01 T01580014  RH  038%=      5-min Rain = 0
KVP1 191546Z 19008KT 16/02 A2997 RMK A01 T01580015  RH  038%=      5-min Rain = 0
KVP1 191547Z 20007KT 16/02 A2997 RMK A01 T01590016  RH  038%=      5-min Rain = 0
KVP1 191548Z 20007KT 16/02 A2997 RMK A01 T01590016  RH  038%=      5-min Rain = 0
KVP1 191549Z 20009KT 16/01 A2997 RMK A01 T01590014  RH  037%=      5-min Rain = 0
KVP1 191550Z 19008KT 16/01 A2997 RMK A01 T01590014  RH  038%=      5-min Rain = 0
KVP1 191551Z 19010KT 16/01 A2997 RMK A01 T01590014  RH  037%=      5-min Rain = 0
KVP1 191552Z 19012KT 16/01 A2997 RMK A01 T01580011  RH  037%=      5-min Rain = 0
KVP1 191553Z 19011KT 16/01 A2997 RMK A01 T01580012  RH  037%=      5-min Rain = 0
KVP1 191554Z 18011KT 16/01 A2997 RMK A01 T01580012  RH  037%=      5-min Rain = 0
KVP1 191555Z 18011KT 16/01 A2997 RMK A01 T01580013  RH  037%=      5-min Rain = 0
KVP1 191556Z 17011KT 16/01 A2997 RMK A01 T01590013  RH  037%=      5-min Rain = 0
KVP1 191557Z 18012KT 16/01 A2996 RMK A01 T01600014  RH  037%=      5-min Rain = 0
KVP1 191558Z 18012KT 16/01 A2996 RMK A01 T01610014  RH  037%=      5-min Rain = 0
KVP1 191559Z 18010KT 16/01 A2996 RMK A01 T01610014  RH  037%=      5-min Rain = 0
KVP1 191600Z 17010KT 16/02 A2996 RMK A01 T01610017  RH  038%=      5-min Rain = 0
KVP1 191601Z 17011KT 16/02 A2996 RMK A01 T01620016  RH  037%=      5-min Rain = 0
KVP1 191602Z 17012KT 16/02 A2996 RMK A01 T01610015  RH  037%=      5-min Rain = 0
KVP1 191603Z 17012KT 16/01 A2996 RMK A01 T01590013  RH  037%=      5-min Rain = 0
KVP1 191604Z 17010KT 16/01 A2996 RMK A01 T01570014  RH  038%=      5-min Rain = 0
KVP1 191605Z 17010KT 16/01 A2996 RMK A01 T01570014  RH  038%=      5-min Rain = 0
KVP1 191606Z 17010KT 16/01 A2996 RMK A01 T01560014  RH  038%=      5-min Rain = 0
KVP1 191607Z 17010KT 16/01 A2996 RMK A01 T01560014  RH  038%=      5-min Rain = 0
KVP1 191608Z 17009KT 16/02 A2996 RMK A01 T01560016  RH  039%=      5-min Rain = 0
KVP1 191609Z 17009KT 16/02 A2996 RMK A01 T01560016  RH  039%=      5-min Rain = 0
KVP1 191610Z 18009KT 16/02 A2996 RMK A01 T01560016  RH  039%=      5-min Rain = 0
KVP1 191611Z 18010KT 16/02 A2996 RMK A01 T01560017  RH  039%=      5-min Rain = 0
KVP1 191612Z 18010KT 16/02 A2996 RMK A01 T01570016  RH  039%=      5-min Rain = 0
KVP1 191613Z 18009KT 16/02 A2996 RMK A01 T01580018  RH  039%=      5-min Rain = 0
KVP1 191614Z 18009KT 16/02 A2996 RMK A01 T01600020  RH  039%=      5-min Rain = 0
KVP1 191615Z 18009KT 16/02 A2996 RMK A01 T01610018  RH  038%=      5-min Rain = 0
KVP1 191616Z 18010KT 16/02 A2996 RMK A01 T01610019  RH  038%=      5-min Rain = 0
KVP1 191617Z 18010KT 16/02 A2996 RMK A01 T01600018  RH  038%=      5-min Rain = 0
KVP1 191618Z 18009KT 16/02 A2996 RMK A01 T01600018  RH  038%=      5-min Rain = 0
KVP1 191619Z 18010KT 16/02 A2996 RMK A01 T01600020  RH  039%=      5-min Rain = 0
KVP1 191620Z 18009KT 16/02 A2996 RMK A01 T01620019  RH  038%=      5-min Rain = 0
KVP1 191621Z 18009KT 16/02 A2996 RMK A01 T01640020  RH  038%=      5-min Rain = 0
KVP1 191622Z 18009KT 16/02 A2996 RMK A01 T01640020  RH  038%=      5-min Rain = 0
KVP1 191623Z 17009KT 17/02 A2996 RMK A01 T01660022  RH  038%=      5-min Rain = 0
KVP1 191624Z 18009KT 17/02 A2996 RMK A01 T01680021  RH  037%=      5-min Rain = 0
KVP1 191625Z 18009KT 17/02 A2996 RMK A01 T01700022  RH  037%=      5-min Rain = 0
KVP1 191626Z 17008KT 17/02 A2996 RMK A01 T01710022  RH  037%=      5-min Rain = 0
KVP1 191627Z 18009KT 17/02 A2996 RMK A01 T01730024  RH  037%=      5-min Rain = 0
KVP1 191628Z 18010KT 18/02 A2996 RMK A01 T01750023  RH  036%=      5-min Rain = 0
KVP1 191629Z 18012KT 18/02 A2995 RMK A01 T01770023  RH  036%=      5-min Rain = 0
KVP1 191630Z 18011KT 18/02 A2995 RMK A01 T01780022  RH  035%=      5-min Rain = 0
KVP1 191631Z 18011KT 18/02 A2995 RMK A01 T01800022  RH  035%=      5-min Rain = 0
KVP1 191632Z 18012KT 18/02 A2995 RMK A01 T01800021  RH  035%=      5-min Rain = 0
KVP1 191633Z 17010KT 18/02 A2995 RMK A01 T01800022  RH  035%=      5-min Rain = 0
KVP1 191634Z 17013KT 18/02 A2995 RMK A01 T01820023  RH  035%=      5-min Rain = 0
KVP1 191635Z 17011KT 18/02 A2995 RMK A01 T01830021  RH  034%=      5-min Rain = 0
KVP1 191636Z 17010KT 18/02 A2995 RMK A01 T01830022  RH  034%=      5-min Rain = 0
KVP1 191637Z 17008KT 19/02 A2995 RMK A01 T01850024  RH  034%=      5-min Rain = 0
KVP1 191638Z 17009KT 19/02 A2995 RMK A01 T01860024  RH  034%=      5-min Rain = 0
KVP1 191639Z 19009KT 19/03 A2995 RMK A01 T01880025  RH  034%=      5-min Rain = 0
KVP1 191640Z 18011KT 19/02 A2995 RMK A01 T01900022  RH  033%=      5-min Rain = 0
KVP1 191641Z 18013KT 19/02 A2996 RMK A01 T01900018  RH  032%=      5-min Rain = 0
KVP1 191642Z 19011KT 19/02 A2996 RMK A01 T01910018  RH  031%=      5-min Rain = 0
KVP1 191643Z 18014KT 19/02 A2996 RMK A01 T01940018  RH  031%=      5-min Rain = 0
KVP1 191644Z 18013KT 20/02 A2996 RMK A01 T01950015  RH  030%=      5-min Rain = 0
KVP1 191645Z 18014KT 20/02 A2996 RMK A01 T01960015  RH  030%=      5-min Rain = 0
KVP1 191646Z 19012KT 20/02 A2996 RMK A01 T01960015  RH  030%=      5-min Rain = 0
KVP1 191647Z 18012KT 19/02 A2995 RMK A01 T01940015  RH  030%=      5-min Rain = 0
KVP1 191648Z 19013KT 20/02 A2995 RMK A01 T01960017  RH  030%=      5-min Rain = 0
KVP1 191649Z 19014KT 20/02 A2995 RMK A01 T01980016  RH  030%=      5-min Rain = 0
KVP1 191650Z 19011KT 20/02 A2995 RMK A01 T01990016  RH  030%=      5-min Rain = 0
KVP1 191651Z 19011KT 20/02 A2995 RMK A01 T01980015  RH  029%=      5-min Rain = 0
KVP1 191652Z 20011G16KT 20/02 A2995 RMK A01 T02000017  RH  030%=      5-min Rain = 0
KVP1 191653Z 20014KT 20/02 A2995 RMK A01 T02020016  RH  029%=      5-min Rain = 0
KVP1 191654Z 19012KT 20/02 A2995 RMK A01 T02020015  RH  029%=      5-min Rain = 0
KVP1 191655Z 18010KT 20/02 A2995 RMK A01 T02030018  RH  029%=      5-min Rain = 0
KVP1 191656Z 19011KT 21/02 A2995 RMK A01 T02060018  RH  029%=      5-min Rain = 0
KVP1 191657Z 19013KT 21/02 A2995 RMK A01 T02080017  RH  028%=      5-min Rain = 0
KVP1 191658Z 19013KT 21/02 A2995 RMK A01 T02090016  RH  028%=      5-min Rain = 0
KVP1 191659Z 19013KT 21/02 A2995 RMK A01 T02080015  RH  028%=      5-min Rain = 0
KVP1 191700Z 18013KT 21/02 A2995 RMK A01 T02070015  RH  028%=      5-min Rain = 0
KVP1 191701Z 18010KT 21/02 A2995 RMK A01 T02070015  RH  028%=      5-min Rain = 0
KVP1 191702Z 18012KT 21/02 A2995 RMK A01 T02100016  RH  028%=      5-min Rain = 0
KVP1 191703Z 18010KT 21/02 A2995 RMK A01 T02100015  RH  027%=      5-min Rain = 0
KVP1 191704Z 18010KT 21/02 A2995 RMK A01 T02110015  RH  027%=      5-min Rain = 0
KVP1 191705Z 19011KT 21/02 A2995 RMK A01 T02110015  RH  027%=      5-min Rain = 0
KVP1 191706Z 19013KT 21/01 A2994 RMK A01 T02120012  RH  027%=      5-min Rain = 0
KVP1 191707Z 19014KT 21/01 A2994 RMK A01 T02130011  RH  026%=      5-min Rain = 0
KVP1 191708Z 18014KT 21/01 A2994 RMK A01 T02130011  RH  026%=      5-min Rain = 0
KVP1 191709Z 18016KT 21/01 A2994 RMK A01 T02120011  RH  026%=      5-min Rain = 0
KVP1 191710Z 18015KT 21/01 A2994 RMK A01 T02120012  RH  026%=      5-min Rain = 0
KVP1 191711Z 17013KT 21/01 A2994 RMK A01 T02120012  RH  026%=      5-min Rain = 0
KVP1 191712Z 18017KT 21/01 A2994 RMK A01 T02130009  RH  026%=      5-min Rain = 0
KVP1 191713Z 19017KT 21/00 A2994 RMK A01 T02140004  RH  025%=      5-min Rain = 0
KVP1 191714Z 18015KT 21/00 A2993 RMK A01 T02140004  RH  025%=      5-min Rain = 0
KVP1 191715Z 19015KT 22/01 A2993 RMK A01 T02150005  RH  025%=      5-min Rain = 0
KVP1 191716Z 18014KT 22/01 A2993 RMK A01 T02160007  RH  025%=      5-min Rain = 0
KVP1 191717Z 19014KT 22/01 A2993 RMK A01 T02190005  RH  024%=      5-min Rain = 0
KVP1 191718Z 18014G19KT 22/01 A2993 RMK A01 T02190005  RH  024%=      5-min Rain = 0
KVP1 191719Z 18015G20KT 22/00 A2993 RMK A01 T02190004  RH  024%=      5-min Rain = 0
KVP1 191720Z 18017G22KT 22/00 A2994 RMK A01 T02180002  RH  024%=      5-min Rain = 0
KVP1 191721Z 18018KT 22/00 A2994 RMK A01 T02170003  RH  024%=      5-min Rain = 0
KVP1 191722Z 18015KT 22/00 A2994 RMK A01 T02150002  RH  024%=      5-min Rain = 0
KVP1 191723Z 19014KT 22/01 A2994 RMK A01 T02150005  RH  025%=      5-min Rain = 0
KVP1 191724Z 18018KT 22/00 A2994 RMK A01 T02150003  RH  024%=      5-min Rain = 0
KVP1 191725Z 19015KT 22/00 A2993 RMK A01 T02150001  RH  024%=      5-min Rain = 0
KVP1 191726Z 19018KT 22/00 A2993 RMK A01 T02150002  RH  024%=      5-min Rain = 0
KVP1 191727Z 18016KT 22/00 A2993 RMK A01 T02150002  RH  024%=      5-min Rain = 0
KVP1 191728Z 19016KT 22/00 A2993 RMK A01 T02150003  RH  024%=      5-min Rain = 0
KVP1 191729Z 18014KT 22/01 A2993 RMK A01 T02170005  RH  024%=      5-min Rain = 0
KVP1 191730Z 19015KT 22/01 A2993 RMK A01 T02190005  RH  024%=      5-min Rain = 0
KVP1 191731Z 19015KT 22/00 A2993 RMK A01 T02200004  RH  024%=      5-min Rain = 0
KVP1 191732Z 19016KT 22/00 A2993 RMK A01 T02200003  RH  024%=      5-min Rain = 0
KVP1 191733Z 18015KT 22/01 A2993 RMK A01 T02200005  RH  024%=      5-min Rain = 0
KVP1 191734Z 18015KT 22/01 A2993 RMK A01 T02210006  RH  024%=      5-min Rain = 0
KVP1 191735Z 18015KT 22/01 A2993 RMK A01 T02220005  RH  024%=      5-min Rain = 0
KVP1 191736Z 18014KT 22/01 A2993 RMK A01 T02210006  RH  024%=      5-min Rain = 0
KVP1 191737Z 17016KT 22/01 A2992 RMK A01 T02220006  RH  024%=      5-min Rain = 0
KVP1 191738Z 17016KT 22/00 A2992 RMK A01 T02210002  RH  023%=      5-min Rain = 0
KVP1 191739Z 17014KT 22/00 A2992 RMK A01 T02200004  RH  024%=      5-min Rain = 0
KVP1 191740Z 17015KT 22/00 A2992 RMK A01 T02190002  RH  024%=      5-min Rain = 0
KVP1 191741Z 17016KT 22/01 A2992 RMK A01 T02190005  RH  024%=      5-min Rain = 0
KVP1 191742Z 17015KT 22/01 A2992 RMK A01 T02190005  RH  024%=      5-min Rain = 0
KVP1 191743Z 17018KT 22/01 A2992 RMK A01 T02190006  RH  024%=      5-min Rain = 0
KVP1 191744Z 18018KT 22/00 A2992 RMK A01 T02190004  RH  024%=      5-min Rain = 0
KVP1 191745Z 18016KT 22/00 A2992 RMK A01 T02190004  RH  024%=      5-min Rain = 0
KVP1 191746Z 18015KT 22/01 A2992 RMK A01 T02170005  RH  024%=      5-min Rain = 0
KVP1 191747Z 18015KT 22/01 A2992 RMK A01 T02180006  RH  024%=      5-min Rain = 0
KVP1 191748Z 17014KT 22/01 A2992 RMK A01 T02190006  RH  024%=      5-min Rain = 0
KVP1 191749Z 18012KT 22/01 A2992 RMK A01 T02200008  RH  024%=      5-min Rain = 0
KVP1 191750Z 17013KT 23/01 A2992 RMK A01 T02250011  RH  024%=      5-min Rain = 0
KVP1 191751Z 18014KT 23/01 A2991 RMK A01 T02260009  RH  024%=      5-min Rain = 0
KVP1 191752Z 19014G20KT 23/01 A2991 RMK A01 T02270009  RH  024%=      5-min Rain = 0
KVP1 191753Z 18015KT 23/01 A2991 RMK A01 T02280009  RH  023%=      5-min Rain = 0
KVP1 191754Z 18016KT 23/01 A2991 RMK A01 T02300005  RH  023%=      5-min Rain = 0
KVP1 191755Z 18016KT 23/00 A2991 RMK A01 T02280004  RH  023%=      5-min Rain = 0
KVP1 191756Z 18016KT 23/01 A2991 RMK A01 T02260005  RH  023%=      5-min Rain = 0
KVP1 191757Z 18014KT 23/01 A2991 RMK A01 T02260006  RH  023%=      5-min Rain = 0
KVP1 191758Z 18016KT 23/01 A2991 RMK A01 T02270008  RH  023%=      5-min Rain = 0
KVP1 191759Z 18014KT 23/01 A2991 RMK A01 T02280008  RH  023%=      5-min Rain = 0
KVP1 191800Z 18013KT 23/01 A2991 RMK A01 T02280008  RH  023%=      5-min Rain = 0
KVP1 191801Z 18012KT 23/01 A2991 RMK A01 T02290009  RH  023%=      5-min Rain = 0
KVP1 191802Z 19012KT 23/01 A2991 RMK A01 T02310008  RH  023%=      5-min Rain = 0
KVP1 191803Z 18015KT 23/01 A2991 RMK A01 T02330009  RH  023%=      5-min Rain = 0
KVP1 191804Z 18015KT 23/01 A2991 RMK A01 T02340005  RH  022%=      5-min Rain = 0
KVP1 191805Z 18018KT 23/00 A299 RMK A01 T02340004  RH  022%=      5-min Rain = 0
KVP1 191806Z 18017KT 23/00 A299 RMK A01 T02320002  RH  022%=      5-min Rain = 0
KVP1 191807Z 17013G18KT 23/00 A299 RMK A01 T02340004  RH  022%=      5-min Rain = 0
KVP1 191808Z 17016KT 24/00 A299 RMK A01 T02360002  RH  021%=      5-min Rain = 0
KVP1 191809Z 17016KT 23/00 A299 RMK A01 T023400-0  RH  021%=      5-min Rain = 0
KVP1 191810Z 18018KT 23/M00 A299 RMK A01 T02311001  RH  021%=      5-min Rain = 0
KVP1 191811Z 18018KT 23/M00 A299 RMK A01 T02271004  RH  022%=      5-min Rain = 0
KVP1 191812Z 17014KT 22/M00 A299 RMK A01 T02231004  RH  022%=      5-min Rain = 0
KVP1 191813Z 17014KT 22/M00 A299 RMK A01 T02211002  RH  023%=      5-min Rain = 0
KVP1 191814Z 17015KT 22/M00 A299 RMK A01 T02201001  RH  023%=      5-min Rain = 0
KVP1 191815Z 18014KT 22/M00 A299 RMK A01 T02211001  RH  023%=      5-min Rain = 0
KVP1 191816Z 18016KT 22/M00 A299 RMK A01 T02211003  RH  022%=      5-min Rain = 0
KVP1 191817Z 18015G20KT 22/M00 A299 RMK A01 T02201002  RH  023%=      5-min Rain = 0
KVP1 191818Z 18013KT 22/M00 A299 RMK A01 T02191001  RH  023%=      5-min Rain = 0
KVP1 191819Z 18013KT 22/00 A299 RMK A01 T02200000  RH  023%=      5-min Rain = 0
KVP1 191820Z 18013KT 22/00 A299 RMK A01 T02230002  RH  023%=      5-min Rain = 0
KVP1 191821Z 18015KT 23/00 A299 RMK A01 T02260001  RH  023%=      5-min Rain = 0
KVP1 191822Z 18017KT 23/00 A2989 RMK A01 T02270001  RH  022%=      5-min Rain = 0
KVP1 191823Z 18018KT 23/M00 A2989 RMK A01 T02281001  RH  022%=      5-min Rain = 0
KVP1 191824Z 18015KT 23/M00 A2989 RMK A01 T02261002  RH  022%=      5-min Rain = 0
KVP1 191825Z 17016KT 23/M00 A2989 RMK A01 T02261001  RH  022%=      5-min Rain = 0
KVP1 191826Z 17016KT 23/M00 A2989 RMK A01 T02261002  RH  022%=      5-min Rain = 0
KVP1 191827Z 17014KT 23/M00 A2989 RMK A01 T02251003  RH  022%=      5-min Rain = 0
KVP1 191828Z 17015KT 23/00 A2989 RMK A01 T02270000  RH  022%=      5-min Rain = 0
KVP1 191829Z 18017KT 23/00 A2989 RMK A01 T02300001  RH  022%=      5-min Rain = 0
KVP1 191830Z 19016KT 23/M00 A2989 RMK A01 T02321003  RH  021%=      5-min Rain = 0
KVP1 191831Z 18017KT 23/M00 A2989 RMK A01 T02321004  RH  021%=      5-min Rain = 0
KVP1 191832Z 19012KT 23/M00 A2989 RMK A01 T02321003  RH  021%=      5-min Rain = 0
KVP1 191833Z 18014KT 24/00 A2989 RMK A01 T023500-0  RH  021%=      5-min Rain = 0
KVP1 191834Z 16014KT 24/M00 A2989 RMK A01 T02381001  RH  021%=      5-min Rain = 0
KVP1 191835Z 17017G22KT 24/M00 A2988 RMK A01 T02391001  RH  020%=      5-min Rain = 0
KVP1 191836Z 18017G22KT 24/M00 A2988 RMK A01 T02401003  RH  020%=      5-min Rain = 0
KVP1 191837Z 18018KT 24/M00 A2988 RMK A01 T02401004  RH  020%=      5-min Rain = 0
KVP1 191838Z 17019KT 24/M00 A2988 RMK A01 T02391004  RH  020%=      5-min Rain = 0
KVP1 191839Z 18017G22KT 24/M00 A2988 RMK A01 T02401003  RH  020%=      5-min Rain = 0
KVP1 191840Z 19014KT 24/M00 A2988 RMK A01 T02431001  RH  020%=      5-min Rain = 0
KVP1 191841Z 18017G22KT 24/M00 A2988 RMK A01 T02441001  RH  020%=      5-min Rain = 0
KVP1 191842Z 18017KT 25/00 A2988 RMK A01 T024500-0  RH  020%=      5-min Rain = 0
KVP1 191843Z 18015G20KT 24/M00 A2988 RMK A01 T02441002  RH  020%=      5-min Rain = 0
KVP1 191844Z 17016G21KT 24/00 A2988 RMK A01 T02430000  RH  020%=      5-min Rain = 0
KVP1 191845Z 19017KT 25/00 A2988 RMK A01 T024500-0  RH  020%=      5-min Rain = 0
KVP1 191846Z 19016KT 25/M00 A2988 RMK A01 T02451002  RH  020%=      5-min Rain = 0
KVP1 191847Z 19014G19KT 24/M00 A2988 RMK A01 T02431001  RH  020%=      5-min Rain = 0
KVP1 191848Z 18019G25KT 24/00 A2988 RMK A01 T02440000  RH  020%=      5-min Rain = 0
KVP1 191849Z 19016G22KT 24/M00 A2988 RMK A01 T02441001  RH  020%=      5-min Rain = 0
KVP1 191850Z 18014KT 24/00 A2988 RMK A01 T024300-0  RH  020%=      5-min Rain = 0
KVP1 191851Z 19017KT 25/00 A2988 RMK A01 T02450001  RH  020%=      5-min Rain = 0
KVP1 191852Z 20018G23KT 25/M00 A2988 RMK A01 T02451002  RH  020%=      5-min Rain = 0
KVP1 191853Z 19016KT 24/M00 A2988 RMK A01 T02431003  RH  020%=      5-min Rain = 0
KVP1 191854Z 19014KT 24/00 A2987 RMK A01 T024300-0  RH  020%=      5-min Rain = 0
KVP1 191855Z 19016KT 24/00 A2987 RMK A01 T024400-0  RH  020%=      5-min Rain = 0
KVP1 191856Z 19019KT 25/M00 A2987 RMK A01 T02451001  RH  020%=      5-min Rain = 0
KVP1 191857Z 19018KT 24/M00 A2987 RMK A01 T02441002  RH  020%=      5-min Rain = 0
KVP1 191858Z 18018KT 24/M00 A2987 RMK A01 T02431003  RH  020%=      5-min Rain = 0
KVP1 191859Z 18015KT 24/M00 A2987 RMK A01 T02411002  RH  020%=      5-min Rain = 0
KVP1 191900Z 18018KT 24/00 A2987 RMK A01 T024200-0  RH  020%=      5-min Rain = 0
KVP1 191901Z 18016G21KT 24/00 A2987 RMK A01 T024200-0  RH  020%=      5-min Rain = 0
KVP1 191902Z 19017KT 24/00 A2987 RMK A01 T02440001  RH  020%=      5-min Rain = 0
KVP1 191903Z 18021G27KT 25/00 A2987 RMK A01 T024500-0  RH  020%=      5-min Rain = 0
KVP1 191904Z 19018KT 24/M00 A2987 RMK A01 T02421002  RH  020%=      5-min Rain = 0
KVP1 191905Z 19017KT 24/M00 A2987 RMK A01 T02401002  RH  020%=      5-min Rain = 0
KVP1 191906Z 19017KT 24/M00 A2987 RMK A01 T02401001  RH  020%=      5-min Rain = 0
KVP1 191907Z 19015KT 24/00 A2987 RMK A01 T02410001  RH  020%=      5-min Rain = 0
KVP1 191908Z 20018KT 24/00 A2987 RMK A01 T02430001  RH  020%=      5-min Rain = 0
KVP1 191909Z 20018KT 24/00 A2987 RMK A01 T024300-0  RH  020%=      5-min Rain = 0
KVP1 191910Z 19017KT 24/00 A2987 RMK A01 T02440002  RH  020%=      5-min Rain = 0
KVP1 191911Z 18019KT 25/M00 A2987 RMK A01 T02461002  RH  019%=      5-min Rain = 0
KVP1 191912Z 19018KT 25/M00 A2987 RMK A01 T02451002  RH  020%=      5-min Rain = 0
KVP1 191913Z 19016KT 24/M00 A2986 RMK A01 T02431002  RH  020%=      5-min Rain = 0
KVP1 191914Z 18019KT 24/M00 A2986 RMK A01 T02431001  RH  020%=      5-min Rain = 0
KVP1 191915Z 19019KT 24/00 A2986 RMK A01 T02410000  RH  020%=      5-min Rain = 0
KVP1 191916Z 19020KT 24/00 A2986 RMK A01 T024100-0  RH  020%=      5-min Rain = 0
KVP1 191917Z 19018KT 24/M00 A2986 RMK A01 T02421001  RH  020%=      5-min Rain = 0
KVP1 191918Z 20019KT 24/M00 A2986 RMK A01 T02421002  RH  020%=      5-min Rain = 0
KVP1 191919Z 19019KT 24/M00 A2986 RMK A01 T02431002  RH  020%=      5-min Rain = 0
KVP1 191920Z 20017KT 24/M00 A2986 RMK A01 T02441001  RH  020%=      5-min Rain = 0
KVP1 191921Z 19020KT 25/00 A2986 RMK A01 T024500-0  RH  020%=      5-min Rain = 0
KVP1 191922Z 19019KT 25/M00 A2986 RMK A01 T02451002  RH  020%=      5-min Rain = 0
KVP1 191923Z 19018KT 24/M00 A2986 RMK A01 T02431003  RH  020%=      5-min Rain = 0
KVP1 191924Z 19017KT 24/M00 A2986 RMK A01 T02431001  RH  020%=      5-min Rain = 0
KVP1 191925Z 19020G25KT 24/00 A2986 RMK A01 T02440000  RH  020%=      5-min Rain = 0
KVP1 191926Z 19021KT 24/M00 A2986 RMK A01 T02441001  RH  020%=      5-min Rain = 0
KVP1 191927Z 19020KT 24/M00 A2986 RMK A01 T02431001  RH  020%=      5-min Rain = 0
KVP1 191928Z 18016KT 24/00 A2986 RMK A01 T02420001  RH  020%=      5-min Rain = 0
KVP1 191929Z 19017KT 25/00 A2986 RMK A01 T02460000  RH  020%=      5-min Rain = 0
KVP1 191930Z 20017KT 25/00 A2986 RMK A01 T024700-0  RH  020%=      5-min Rain = 0
KVP1 191931Z 19019KT 25/M00 A2986 RMK A01 T02451002  RH  020%=      5-min Rain = 0
KVP1 191932Z 20019KT 25/M00 A2986 RMK A01 T02451001  RH  020%=      5-min Rain = 0
KVP1 191933Z 19020KT 25/M00 A2986 RMK A01 T02461002  RH  020%=      5-min Rain = 0
KVP1 191934Z 19017G22KT 25/M00 A2986 RMK A01 T02451002  RH  020%=      5-min Rain = 0
KVP1 191935Z 19016KT 25/M00 A2986 RMK A01 T02451001  RH  020%=      5-min Rain = 0
KVP1 191936Z 20016KT 25/00 A2985 RMK A01 T024700-0  RH  020%=      5-min Rain = 0
KVP1 191937Z 19015G21KT 25/M00 A2985 RMK A01 T02471001  RH  020%=      5-min Rain = 0
KVP1 191938Z 19018KT 25/00 A2985 RMK A01 T024800-0  RH  019%=      5-min Rain = 0
KVP1 191939Z 19017KT 25/M00 A2985 RMK A01 T02491001  RH  019%=      5-min Rain = 0
KVP1 191940Z 19016KT 25/M00 A2985 RMK A01 T02481001  RH  019%=      5-min Rain = 0
KVP1 191941Z 19020G25KT 25/M00 A2985 RMK A01 T02481002  RH  019%=      5-min Rain = 0
KVP1 191942Z 19017KT 25/M01 A2985 RMK A01 T02471006  RH  019%=      5-min Rain = 0
KVP1 191943Z 19016KT 25/M00 A2985 RMK A01 T02471004  RH  019%=      5-min Rain = 0
KVP1 191944Z 18019KT 25/M00 A2985 RMK A01 T02471001  RH  019%=      5-min Rain = 0
KVP1 191945Z 18020G26KT 25/M00 A2985 RMK A01 T02481003  RH  019%=      5-min Rain = 0
KVP1 191946Z 19021KT 25/M01 A2985 RMK A01 T02481005  RH  019%=      5-min Rain = 0
KVP1 191947Z 20017G22KT 25/M01 A2985 RMK A01 T02471005  RH  019%=      5-min Rain = 0
KVP1 191948Z 20019KT 25/M01 A2985 RMK A01 T02481006  RH  019%=      5-min Rain = 0
KVP1 191949Z 19016KT 25/M01 A2985 RMK A01 T02491006  RH  019%=      5-min Rain = 0
KVP1 191950Z 20016KT 25/M00 A2985 RMK A01 T02521003  RH  019%=      5-min Rain = 0
KVP1 191951Z 20018G25KT 25/M00 A2985 RMK A01 T02541004  RH  018%=      5-min Rain = 0
KVP1 191952Z 20022KT 25/M01 A2984 RMK A01 T02521006  RH  018%=      5-min Rain = 0
KVP1 191953Z 20019KT 25/M01 A2985 RMK A01 T02481007  RH  019%=      5-min Rain = 0
KVP1 191954Z 20019KT 25/M01 A2985 RMK A01 T02481006  RH  019%=      5-min Rain = 0
KVP1 191955Z 20018G23KT 25/M01 A2984 RMK A01 T02481007  RH  019%=      5-min Rain = 0
KVP1 191956Z 19020KT 25/M01 A2984 RMK A01 T02481007  RH  018%=      5-min Rain = 0
KVP1 191957Z 21020KT 25/M01 A2984 RMK A01 T02491007  RH  018%=      5-min Rain = 0
KVP1 191958Z 21019KT 25/M01 A2984 RMK A01 T02501007  RH  018%=      5-min Rain = 0
KVP1 191959Z 21021KT 25/M01 A2984 RMK A01 T02521006  RH  018%=      5-min Rain = 0
KVP1 192000Z 21020KT 25/M01 A2984 RMK A01 T02521007  RH  018%=      5-min Rain = 0
KVP1 192001Z 21018G23KT 25/M01 A2984 RMK A01 T02501008  RH  018%=      5-min Rain = 0
KVP1 192002Z 21018G23KT 25/M01 A2984 RMK A01 T02491007  RH  018%=      5-min Rain = 0
KVP1 192003Z 22021KT 25/M01 A2984 RMK A01 T02491008  RH  018%=      5-min Rain = 0
KVP1 192004Z 21017KT 25/M01 A2984 RMK A01 T02481007  RH  019%=      5-min Rain = 0
KVP1 192005Z 21017G22KT 25/M01 A2984 RMK A01 T02491006  RH  019%=      5-min Rain = 0
KVP1 192006Z 19017KT 25/M00 A2984 RMK A01 T02521003  RH  019%=      5-min Rain = 0
KVP1 192007Z 19021KT 25/M01 A2984 RMK A01 T02531005  RH  018%=      5-min Rain = 0
KVP1 192008Z 20020G25KT 25/M01 A2984 RMK A01 T02511008  RH  018%=      5-min Rain = 0
KVP1 192009Z 21017G22KT 25/M01 A2984 RMK A01 T02491007  RH  018%=      5-min Rain = 0
KVP1 192010Z 20019G25KT 25/M01 A2984 RMK A01 T02491006  RH  019%=      5-min Rain = 0
KVP1 192011Z 21019G24KT 25/M01 A2984 RMK A01 T02491006  RH  019%=      5-min Rain = 0
KVP1 192012Z 21020KT 25/M01 A2984 RMK A01 T02501007  RH  018%=      5-min Rain = 0
KVP1 192013Z 20019G24KT 25/M01 A2984 RMK A01 T02481007  RH  019%=      5-min Rain = 0
KVP1 192014Z 20020G27KT 25/M01 A2984 RMK A01 T02471007  RH  019%=      5-min Rain = 0
KVP1 192015Z 19019KT 25/M01 A2984 RMK A01 T02461007  RH  019%=      5-min Rain = 0
KVP1 192016Z 19019KT 25/M01 A2984 RMK A01 T02471007  RH  019%=      5-min Rain = 0
KVP1 192017Z 19019KT 25/M01 A2984 RMK A01 T02471007  RH  019%=      5-min Rain = 0
KVP1 192018Z 19020KT 25/M01 A2984 RMK A01 T02471006  RH  019%=      5-min Rain = 0
KVP1 192019Z 19022KT 25/M01 A2983 RMK A01 T02471005  RH  019%=      5-min Rain = 0
KVP1 192020Z 19019KT 25/M01 A2984 RMK A01 T02461006  RH  019%=      5-min Rain = 0
KVP1 192021Z 19019KT 25/M01 A2984 RMK A01 T02461005  RH  019%=      5-min Rain = 0
KVP1 192022Z 19018KT 25/M01 A2983 RMK A01 T02471006  RH  019%=      5-min Rain = 0
KVP1 192023Z 19019KT 25/M01 A2983 RMK A01 T02471005  RH  019%=      5-min Rain = 0
KVP1 192024Z 19017G22KT 25/M01 A2983 RMK A01 T02471006  RH  019%=      5-min Rain = 0
KVP1 192025Z 19020KT 25/M00 A2983 RMK A01 T02471003  RH  019%=      5-min Rain = 0
KVP1 192026Z 20017KT 25/M00 A2983 RMK A01 T02471004  RH  019%=      5-min Rain = 0
KVP1 192027Z 20017KT 25/M00 A2983 RMK A01 T02491003  RH  019%=      5-min Rain = 0
KVP1 192028Z 19016KT 25/M00 A2983 RMK A01 T02491004  RH  019%=      5-min Rain = 0
KVP1 192029Z 19019KT 25/M00 A2983 RMK A01 T02491003  RH  019%=      5-min Rain = 0
KVP1 192030Z 20019KT 25/M00 A2983 RMK A01 T02501003  RH  019%=      5-min Rain = 0
KVP1 192031Z 20017G22KT 25/M00 A2983 RMK A01 T02501004  RH  019%=      5-min Rain = 0
KVP1 192032Z 20014KT 25/M00 A2983 RMK A01 T02501002  RH  019%=      5-min Rain = 0
KVP1 192033Z 21017G24KT 25/M00 A2983 RMK A01 T02541002  RH  019%=      5-min Rain = 0
KVP1 192034Z 20021KT 25/M00 A2983 RMK A01 T02531004  RH  018%=      5-min Rain = 0
KVP1 192035Z 20018KT 25/M01 A2983 RMK A01 T02501006  RH  018%=      5-min Rain = 0
KVP1 192036Z 19018KT 25/M01 A2983 RMK A01 T02481005  RH  019%=      5-min Rain = 0
KVP1 192037Z 19021KT 25/M00 A2983 RMK A01 T02491004  RH  019%=      5-min Rain = 0
KVP1 192038Z 19019KT 25/M01 A2983 RMK A01 T02481005  RH  019%=      5-min Rain = 0
KVP1 192039Z 19022KT 25/M01 A2983 RMK A01 T02481005  RH  019%=      5-min Rain = 0
KVP1 192040Z 20018KT 25/M01 A2983 RMK A01 T02471006  RH  019%=      5-min Rain = 0
KVP1 192041Z 20017KT 25/M01 A2983 RMK A01 T02481005  RH  019%=      5-min Rain = 0
KVP1 192042Z 22018G23KT 25/M00 A2983 RMK A01 T02501004  RH  019%=      5-min Rain = 0
KVP1 192043Z 22017KT 25/M01 A2982 RMK A01 T02501006  RH  019%=      5-min Rain = 0
KVP1 192044Z 20015KT 25/M00 A2983 RMK A01 T02501004  RH  019%=      5-min Rain = 0
KVP1 192045Z 20019KT 25/M00 A2982 RMK A01 T02521003  RH  019%=      5-min Rain = 0
KVP1 192046Z 20020KT 25/M01 A2982 RMK A01 T02511005  RH  019%=      5-min Rain = 0
KVP1 192047Z 20019KT 25/M01 A2983 RMK A01 T02491005  RH  019%=      5-min Rain = 0
KVP1 192048Z 19017KT 25/M00 A2983 RMK A01 T02491004  RH  019%=      5-min Rain = 0
KVP1 192049Z 19017KT 25/M01 A2982 RMK A01 T02491005  RH  019%=      5-min Rain = 0
KVP1 192050Z 20014KT 25/M01 A2983 RMK A01 T02471005  RH  019%=      5-min Rain = 0
KVP1 192051Z 22017KT 25/M01 A2982 RMK A01 T02481005  RH  019%=      5-min Rain = 0
KVP1 192052Z 21017KT 25/M01 A2982 RMK A01 T02491007  RH  018%=      5-min Rain = 0
KVP1 192053Z 20016KT 25/M01 A2982 RMK A01 T02501007  RH  018%=      5-min Rain = 0
KVP1 192054Z 20019KT 25/M01 A2983 RMK A01 T02501007  RH  018%=      5-min Rain = 0
KVP1 192055Z 20019G24KT 25/M01 A2983 RMK A01 T02491006  RH  019%=      5-min Rain = 0
KVP1 192056Z 20018KT 25/M01 A2983 RMK A01 T02481006  RH  019%=      5-min Rain = 0
KVP1 192057Z 21022KT 25/M01 A2983 RMK A01 T02471006  RH  019%=      5-min Rain = 0
KVP1 192058Z 20018KT 25/M01 A2983 RMK A01 T02461007  RH  019%=      5-min Rain = 0
KVP1 192059Z 21019KT 25/M01 A2983 RMK A01 T02451007  RH  019%=      5-min Rain = 0
KVP1 192100Z 20015KT 25/M01 A2983 RMK A01 T02451008  RH  019%=      5-min Rain = 0
KVP1 192101Z 19015KT 25/M01 A2983 RMK A01 T02451007  RH  019%=      5-min Rain = 0
KVP1 192102Z 19018KT 25/M01 A2982 RMK A01 T02471007  RH  019%=      5-min Rain = 0
KVP1 192103Z 20018KT 25/M01 A2982 RMK A01 T02471007  RH  019%=      5-min Rain = 0
KVP1 192104Z 20018KT 25/M01 A2982 RMK A01 T02471007  RH  019%=      5-min Rain = 0
KVP1 192105Z 19017G22KT 25/M01 A2982 RMK A01 T02481006  RH  019%=      5-min Rain = 0
KVP1 192106Z 19018KT 25/M01 A2982 RMK A01 T02481007  RH  019%=      5-min Rain = 0
KVP1 192107Z 20020KT 25/M01 A2982 RMK A01 T02481006  RH  019%=      5-min Rain = 0
KVP1 192108Z 20017G22KT 25/M01 A2982 RMK A01 T02481005  RH  019%=      5-min Rain = 0
KVP1 192109Z 19018KT 25/M01 A2982 RMK A01 T02491007  RH  019%=      5-min Rain = 0
KVP1 192110Z 19018KT 25/M01 A2982 RMK A01 T02481008  RH  018%=      5-min Rain = 0
KVP1 192111Z 19018KT 25/M01 A2982 RMK A01 T02471007  RH  019%=      5-min Rain = 0
KVP1 192112Z 21018KT 25/M01 A2982 RMK A01 T02481007  RH  019%=      5-min Rain = 0
KVP1 192113Z 20020KT 25/M01 A2982 RMK A01 T02481008  RH  018%=      5-min Rain = 0
KVP1 192114Z 20018G23KT 25/M01 A2982 RMK A01 T02461008  RH  019%=      5-min Rain = 0
KVP1 192115Z 19017KT 25/M01 A2982 RMK A01 T02461006  RH  019%=      5-min Rain = 0
KVP1 192116Z 20017KT 25/M01 A2982 RMK A01 T02461006  RH  019%=      5-min Rain = 0
KVP1 192117Z 20019KT 25/M01 A2982 RMK A01 T02461006  RH  019%=      5-min Rain = 0
KVP1 192118Z 20017KT 25/M01 A2982 RMK A01 T02451007  RH  019%=      5-min Rain = 0
KVP1 192119Z 20019KT 24/M01 A2982 RMK A01 T02441006  RH  019%=      5-min Rain = 0
KVP1 192120Z 20016KT 24/M01 A2982 RMK A01 T02441007  RH  019%=      5-min Rain = 0
KVP1 192121Z 20020KT 25/M01 A2982 RMK A01 T02461007  RH  019%=      5-min Rain = 0
KVP1 192122Z 21019KT 25/M01 A2982 RMK A01 T02461008  RH  019%=      5-min Rain = 0
KVP1 192123Z 21017KT 24/M01 A2982 RMK A01 T02441009  RH  019%=      5-min Rain = 0
KVP1 192124Z 20019KT 24/M01 A2982 RMK A01 T02431008  RH  019%=      5-min Rain = 0
KVP1 192125Z 20020KT 24/M01 A2982 RMK A01 T02421008  RH  019%=      5-min Rain = 0
KVP1 192126Z 21017KT 24/M01 A2982 RMK A01 T02411007  RH  019%=      5-min Rain = 0
KVP1 192127Z 19014KT 24/M01 A2982 RMK A01 T02411007  RH  019%=      5-min Rain = 0
KVP1 192128Z 19016KT 24/M00 A2982 RMK A01 T02421004  RH  020%=      5-min Rain = 0
KVP1 192129Z 20016KT 24/M00 A2982 RMK A01 T02431004  RH  020%=      5-min Rain = 0
KVP1 192130Z 20017KT 24/M01 A2982 RMK A01 T02441005  RH  019%=      5-min Rain = 0
KVP1 192131Z 20019KT 24/M01 A2982 RMK A01 T02441005  RH  019%=      5-min Rain = 0
KVP1 192132Z 19020G25KT 24/M01 A2982 RMK A01 T02441006  RH  019%=      5-min Rain = 0
KVP1 192133Z 20020KT 24/M01 A2981 RMK A01 T02431007  RH  019%=      5-min Rain = 0
KVP1 192134Z 20018KT 24/M01 A2982 RMK A01 T02421007  RH  019%=      5-min Rain = 0
KVP1 192135Z 20019KT 24/M01 A2981 RMK A01 T02421006  RH  019%=      5-min Rain = 0
KVP1 192136Z 20013KT 24/M01 A2981 RMK A01 T02421006  RH  019%=      5-min Rain = 0
KVP1 192137Z 19020KT 24/M01 A2981 RMK A01 T02441006  RH  019%=      5-min Rain = 0
KVP1 192138Z 20019KT 24/M01 A2981 RMK A01 T02431007  RH  019%=      5-min Rain = 0
KVP1 192139Z 20017KT 24/M01 A2981 RMK A01 T02421007  RH  019%=      5-min Rain = 0
KVP1 192140Z 20017KT 24/M01 A2981 RMK A01 T02421007  RH  019%=      5-min Rain = 0
KVP1 192141Z 20016KT 24/M01 A2981 RMK A01 T02421007  RH  019%=      5-min Rain = 0
KVP1 192142Z 20017G22KT 24/M01 A2981 RMK A01 T02421007  RH  019%=      5-min Rain = 0
KVP1 192143Z 20019KT 24/M01 A2981 RMK A01 T02431007  RH  019%=      5-min Rain = 0
KVP1 192144Z 20018KT 24/M01 A2981 RMK A01 T02421008  RH  019%=      5-min Rain = 0
KVP1 192145Z 20017G22KT 24/M01 A2981 RMK A01 T02421008  RH  019%=      5-min Rain = 0
KVP1 192146Z 20015G20KT 24/M01 A2981 RMK A01 T02411008  RH  019%=      5-min Rain = 0
KVP1 192147Z 20020KT 24/M01 A2981 RMK A01 T02411008  RH  019%=      5-min Rain = 0
KVP1 192148Z 19019KT 24/M01 A2981 RMK A01 T02401009  RH  019%=      5-min Rain = 0
KVP1 192149Z 19020KT 24/M01 A2981 RMK A01 T02401009  RH  019%=      5-min Rain = 0
KVP1 192150Z 18019G24KT 24/M01 A2981 RMK A01 T02391008  RH  019%=      5-min Rain = 0
KVP1 192151Z 19017G22KT 24/M01 A2981 RMK A01 T02391008  RH  019%=      5-min Rain = 0
KVP1 192152Z 19015KT 24/M01 A2981 RMK A01 T02391006  RH  020%=      5-min Rain = 0
KVP1 192153Z 19015KT 24/M01 A2981 RMK A01 T02391006  RH  020%=      5-min Rain = 0
KVP1 192154Z 19016KT 24/M01 A2981 RMK A01 T02401008  RH  019%=      5-min Rain = 0
KVP1 192155Z 19017KT 24/M01 A2981 RMK A01 T02401008  RH  019%=      5-min Rain = 0
KVP1 192156Z 20019KT 24/M01 A2981 RMK A01 T02391009  RH  019%=      5-min Rain = 0
KVP1 192157Z 19016KT 24/M01 A2981 RMK A01 T02381009  RH  019%=      5-min Rain = 0
KVP1 192158Z 19014G20KT 24/M01 A2981 RMK A01 T02381008  RH  020%=      5-min Rain = 0
KVP1 192159Z 19015KT 24/M01 A2981 RMK A01 T02381007  RH  020%=      5-min Rain = 0
KVP1 192200Z 18017KT 24/M01 A2981 RMK A01 T02381007  RH  020%=      5-min Rain = 0
KVP1 192201Z 18017KT 24/M01 A2981 RMK A01 T02371008  RH  020%=      5-min Rain = 0
KVP1 192202Z 19014KT 24/M01 A2981 RMK A01 T02371007  RH  020%=      5-min Rain = 0
KVP1 192203Z 19014KT 24/M01 A2981 RMK A01 T02371008  RH  020%=      5-min Rain = 0
KVP1 192204Z 19016KT 24/M01 A2981 RMK A01 T02371008  RH  020%=      5-min Rain = 0
KVP1 192205Z 19016KT 24/M01 A2981 RMK A01 T02361008  RH  020%=      5-min Rain = 0
KVP1 192206Z 19014KT 24/M01 A2981 RMK A01 T02351008  RH  020%=      5-min Rain = 0
KVP1 192207Z 19013KT 24/M01 A2981 RMK A01 T02351008  RH  020%=      5-min Rain = 0
KVP1 192208Z 19014KT 24/M01 A2981 RMK A01 T02361008  RH  020%=      5-min Rain = 0
KVP1 192209Z 19020KT 24/M01 A2981 RMK A01 T02361008  RH  020%=      5-min Rain = 0
KVP1 192210Z 20016G21KT 24/M01 A2981 RMK A01 T02371009  RH  020%=      5-min Rain = 0
KVP1 192211Z 20012KT 24/M01 A2981 RMK A01 T02361008  RH  020%=      5-min Rain = 0
KVP1 192212Z 19016KT 24/M01 A2981 RMK A01 T02371008  RH  020%=      5-min Rain = 0
KVP1 192213Z 19014KT 24/M01 A2981 RMK A01 T02371008  RH  020%=      5-min Rain = 0
KVP1 192214Z 19014KT 24/M01 A2981 RMK A01 T02371007  RH  020%=      5-min Rain = 0
KVP1 192215Z 19014KT 24/M01 A2981 RMK A01 T02371006  RH  020%=      5-min Rain = 0
KVP1 192216Z 19016KT 24/M01 A2981 RMK A01 T02361007  RH  020%=      5-min Rain = 0
KVP1 192217Z 18014KT 24/M01 A2981 RMK A01 T02351008  RH  020%=      5-min Rain = 0
KVP1 192218Z 19013KT 24/M01 A2981 RMK A01 T02351006  RH  020%=      5-min Rain = 0
KVP1 192219Z 18016KT 24/M01 A2981 RMK A01 T02351006  RH  020%=      5-min Rain = 0
KVP1 192220Z 19018KT 24/M01 A2981 RMK A01 T02351007  RH  020%=      5-min Rain = 0
KVP1 192221Z 19017KT 24/M01 A2981 RMK A01 T02351007  RH  020%=      5-min Rain = 0
KVP1 192222Z 19016KT 24/M01 A2981 RMK A01 T02351007  RH  020%=      5-min Rain = 0
KVP1 192223Z 19014KT 24/M01 A2981 RMK A01 T02351008  RH  020%=      5-min Rain = 0
KVP1 192224Z 19013KT 24/M01 A2981 RMK A01 T02351007  RH  020%=      5-min Rain = 0
KVP1 192225Z 19014KT 24/M01 A2981 RMK A01 T02351007  RH  020%=      5-min Rain = 0
KVP1 192226Z 19016KT 24/M01 A2981 RMK A01 T02351007  RH  020%=      5-min Rain = 0
KVP1 192227Z 19014KT 23/M01 A2981 RMK A01 T02341007  RH  020%=      5-min Rain = 0
KVP1 192228Z 19015KT 23/M01 A2981 RMK A01 T02341006  RH  020%=      5-min Rain = 0
KVP1 192229Z 18015KT 23/M01 A2981 RMK A01 T02341006  RH  020%=      5-min Rain = 0
KVP1 192230Z 19020KT 23/M01 A2981 RMK A01 T02341007  RH  020%=      5-min Rain = 0
KVP1 192231Z 19016KT 23/M01 A2981 RMK A01 T02331007  RH  020%=      5-min Rain = 0
KVP1 192232Z 19016KT 23/M01 A2981 RMK A01 T02321007  RH  020%=      5-min Rain = 0
KVP1 192233Z 19013KT 23/M01 A2981 RMK A01 T02321007  RH  020%=      5-min Rain = 0
KVP1 192234Z 19015KT 23/M01 A2981 RMK A01 T02321006  RH  021%=      5-min Rain = 0
KVP1 192235Z 19013KT 23/M01 A2981 RMK A01 T02311007  RH  020%=      5-min Rain = 0
KVP1 192236Z 19014KT 23/M01 A2981 RMK A01 T02311007  RH  021%=      5-min Rain = 0
KVP1 192237Z 19013KT 23/M01 A2981 RMK A01 T02311007  RH  020%=      5-min Rain = 0
KVP1 192238Z 19012KT 23/M01 A2981 RMK A01 T02311006  RH  021%=      5-min Rain = 0
KVP1 192239Z 19016KT 23/M01 A2981 RMK A01 T02311006  RH  021%=      5-min Rain = 0
KVP1 192240Z 19012KT 23/M01 A2981 RMK A01 T02301007  RH  021%=      5-min Rain = 0
KVP1 192241Z 19015KT 23/M01 A2981 RMK A01 T02301006  RH  021%=      5-min Rain = 0
KVP1 192242Z 19017KT 23/M01 A2981 RMK A01 T02291007  RH  021%=      5-min Rain = 0
KVP1 192243Z 18013KT 23/M01 A2981 RMK A01 T02291006  RH  021%=      5-min Rain = 0
KVP1 192244Z 19014G19KT 23/M01 A2981 RMK A01 T02281005  RH  021%=      5-min Rain = 0
KVP1 192245Z 19016KT 23/M01 A2981 RMK A01 T02281006  RH  021%=      5-min Rain = 0
KVP1 192246Z 19014KT 23/M01 A2981 RMK A01 T02281006  RH  021%=      5-min Rain = 0
KVP1 192247Z 19014KT 23/M01 A2981 RMK A01 T02271005  RH  021%=      5-min Rain = 0
KVP1 192248Z 18013KT 23/M01 A2981 RMK A01 T02271005  RH  021%=      5-min Rain = 0
KVP1 192249Z 19013KT 23/M01 A2981 RMK A01 T02261005  RH  022%=      5-min Rain = 0
KVP1 192250Z 19012KT 23/M01 A2981 RMK A01 T02251005  RH  022%=      5-min Rain = 0
KVP1 192251Z 19013KT 22/M01 A2981 RMK A01 T02241005  RH  022%=      5-min Rain = 0
KVP1 192252Z 19014KT 22/M01 A2981 RMK A01 T02241005  RH  022%=      5-min Rain = 0
KVP1 192253Z 19011KT 22/M01 A2981 RMK A01 T02241005  RH  022%=      5-min Rain = 0
KVP1 192254Z 18011KT 22/M01 A2981 RMK A01 T02231005  RH  022%=      5-min Rain = 0
KVP1 192255Z 18012KT 22/M00 A2981 RMK A01 T02221004  RH  022%=      5-min Rain = 0
KVP1 192256Z 18012KT 22/M00 A2981 RMK A01 T02211003  RH  023%=      5-min Rain = 0
KVP1 192257Z 18011KT 22/M00 A2981 RMK A01 T02201002  RH  023%=      5-min Rain = 0
KVP1 192258Z 18012KT 22/M00 A2981 RMK A01 T02191003  RH  023%=      5-min Rain = 0
KVP1 192259Z 18012KT 22/M00 A2981 RMK A01 T02181002  RH  023%=      5-min Rain = 0
KVP1 192300Z 18011KT 22/M00 A2981 RMK A01 T02171002  RH  023%=      5-min Rain = 0
KVP1 192301Z 18011KT 22/M00 A2981 RMK A01 T02161002  RH  023%=      5-min Rain = 0
KVP1 192302Z 18010KT 21/M00 A2981 RMK A01 T02141002  RH  024%=      5-min Rain = 0
KVP1 192303Z 18010KT 21/M00 A2981 RMK A01 T02121002  RH  024%=      5-min Rain = 0
KVP1 192304Z 18010KT 21/M00 A2981 RMK A01 T02101002  RH  024%=      5-min Rain = 0
KVP1 192305Z 18009KT 21/M00 A2981 RMK A01 T02071002  RH  025%=      5-min Rain = 0
KVP1 192306Z 18010KT 21/M00 A2981 RMK A01 T02061001  RH  025%=      5-min Rain = 0
KVP1 192307Z 17010KT 20/M00 A298 RMK A01 T02031002  RH  025%=      5-min Rain = 0
KVP1 192308Z 18009KT 20/M00 A298 RMK A01 T02011002  RH  026%=      5-min Rain = 0
KVP1 192309Z 17010KT 20/M00 A298 RMK A01 T02001002  RH  026%=      5-min Rain = 0
KVP1 192310Z 18010KT 20/M00 A298 RMK A01 T01991002  RH  026%=      5-min Rain = 0
KVP1 192311Z 18010KT 20/M00 A298 RMK A01 T01971002  RH  026%=      5-min Rain = 0
KVP1 192312Z 18010KT 20/M00 A298 RMK A01 T01961002  RH  026%=      5-min Rain = 0
KVP1 192313Z 18010KT 20/M00 A298 RMK A01 T01951002  RH  026%=      5-min Rain = 0
KVP1 192314Z 17010KT 20/M00 A298 RMK A01 T01951002  RH  027%=      5-min Rain = 0
KVP1 192315Z 18010KT 19/M00 A298 RMK A01 T01931002  RH  027%=      5-min Rain = 0
KVP1 192316Z 18010KT 19/M00 A298 RMK A01 T01921003  RH  027%=      5-min Rain = 0
KVP1 192317Z 18010KT 19/M00 A298 RMK A01 T01921002  RH  027%=      5-min Rain = 0
KVP1 192318Z 18009KT 19/M00 A298 RMK A01 T01911003  RH  027%=      5-min Rain = 0
KVP1 192319Z 18010KT 19/M00 A298 RMK A01 T01901003  RH  027%=      5-min Rain = 0
KVP1 192320Z 18009KT 19/M00 A298 RMK A01 T01891003  RH  027%=      5-min Rain = 0
KVP1 192321Z 18009KT 19/M00 A298 RMK A01 T01881003  RH  027%=      5-min Rain = 0
KVP1 192322Z 18009KT 19/M00 A298 RMK A01 T01871004  RH  028%=      5-min Rain = 0
KVP1 192323Z 18009KT 19/M00 A298 RMK A01 T01861003  RH  028%=      5-min Rain = 0
KVP1 192324Z 17009KT 19/M00 A298 RMK A01 T01851004  RH  028%=      5-min Rain = 0
KVP1 192325Z 17010KT 18/M00 A298 RMK A01 T01831004  RH  028%=      5-min Rain = 0
KVP1 192326Z 17009KT 18/M00 A298 RMK A01 T01831003  RH  028%=      5-min Rain = 0
KVP1 192327Z 17009KT 18/M00 A298 RMK A01 T01811003  RH  029%=      5-min Rain = 0
KVP1 192328Z 17009KT 18/M00 A298 RMK A01 T01801003  RH  029%=      5-min Rain = 0
KVP1 192329Z 17009KT 18/M00 A298 RMK A01 T01791003  RH  029%=      5-min Rain = 0
KVP1 192330Z 17009KT 18/M00 A2981 RMK A01 T01781002  RH  029%=      5-min Rain = 0
KVP1 192331Z 17009KT 18/M00 A2981 RMK A01 T01771002  RH  030%=      5-min Rain = 0
KVP1 192332Z 17010KT 18/M00 A2981 RMK A01 T01761002  RH  030%=      5-min Rain = 0
KVP1 192333Z 17009KT 18/M00 A2981 RMK A01 T01761002  RH  030%=      5-min Rain = 0
KVP1 192334Z 17010KT 18/M00 A2981 RMK A01 T01751002  RH  030%=      5-min Rain = 0
KVP1 192335Z 17009KT 17/M00 A2981 RMK A01 T01741002  RH  030%=      5-min Rain = 0
KVP1 192336Z 17009KT 17/M00 A2981 RMK A01 T01731002  RH  030%=      5-min Rain = 0
KVP1 192337Z 17009KT 17/M00 A2981 RMK A01 T01721002  RH  031%=      5-min Rain = 0
KVP1 192338Z 17009KT 17/M00 A2981 RMK A01 T01721003  RH  031%=      5-min Rain = 0
KVP1 192339Z 17009KT 17/M00 A2981 RMK A01 T01721002  RH  031%=      5-min Rain = 0
KVP1 192340Z 17010KT 17/M00 A2981 RMK A01 T01721002  RH  031%=      5-min Rain = 0
KVP1 192341Z 17011KT 17/M00 A2981 RMK A01 T01731001  RH  031%=      5-min Rain = 0
KVP1 192342Z 17011KT 17/M00 A2981 RMK A01 T01741001  RH  031%=      5-min Rain = 0
KVP1 192343Z 17011KT 18/00 A2981 RMK A01 T017500-0  RH  031%=      5-min Rain = 0
KVP1 192344Z 17010KT 18/00 A2981 RMK A01 T017500-0  RH  031%=      5-min Rain = 0
KVP1 192345Z 17011KT 18/00 A2981 RMK A01 T01750000  RH  031%=      5-min Rain = 0
KVP1 192346Z 17010KT 18/00 A2981 RMK A01 T01750001  RH  031%=      5-min Rain = 0
KVP1 192347Z 17010KT 17/00 A2981 RMK A01 T01740001  RH  031%=      5-min Rain = 0
KVP1 192348Z 17011KT 17/00 A2981 RMK A01 T01740002  RH  031%=      5-min Rain = 0
KVP1 192349Z 17011KT 17/00 A2981 RMK A01 T01740002  RH  031%=      5-min Rain = 0
KVP1 192350Z 17011KT 17/00 A2981 RMK A01 T01740002  RH  031%=      5-min Rain = 0
KVP1 192351Z 17011KT 18/00 A2981 RMK A01 T01750002  RH  031%=      5-min Rain = 0
KVP1 192352Z 17011KT 18/00 A2981 RMK A01 T01750003  RH  031%=      5-min Rain = 0
KVP1 192353Z 17010KT 17/00 A2981 RMK A01 T01740003  RH  031%=      5-min Rain = 0
KVP1 192354Z 17011KT 17/00 A2981 RMK A01 T01730003  RH  032%=      5-min Rain = 0
KVP1 192355Z 17011KT 17/00 A2981 RMK A01 T01730003  RH  032%=      5-min Rain = 0
KVP1 192356Z 17010KT 17/00 A2981 RMK A01 T01730003  RH  032%=      5-min Rain = 0
KVP1 192357Z 17010KT 17/00 A2981 RMK A01 T01720003  RH  032%=      5-min Rain = 0
KVP1 192358Z 17011KT 17/00 A2981 RMK A01 T01720003  RH  032%=      5-min Rain = 0
KVP1 192359Z 17010KT 17/00 A2981 RMK A01 T01710003  RH  032%=      5-min Rain = 0
KVP1 200000Z 17010KT 17/00 A2981 RMK A01 T01700003  RH  032%=      5-min Rain = 0
KVP1 200001Z 17011KT 17/00 A2981 RMK A01 T01690003  RH  033%=      5-min Rain = 0
KVP1 200002Z 17010KT 17/00 A2981 RMK A01 T01680003  RH  033%=      5-min Rain = 0
KVP1 200003Z 17011KT 17/00 A2981 RMK A01 T01680004  RH  033%=      5-min Rain = 0
KVP1 200004Z 17011KT 17/00 A2981 RMK A01 T01680004  RH  033%=      5-min Rain = 0
KVP1 200005Z 17011KT 17/00 A2981 RMK A01 T01680004  RH  033%=      5-min Rain = 0
KVP1 200006Z 17010KT 17/00 A2981 RMK A01 T01670004  RH  033%=      5-min Rain = 0
KVP1 200007Z 17012KT 17/01 A2981 RMK A01 T01670005  RH  033%=      5-min Rain = 0
KVP1 200008Z 17011KT 17/01 A2981 RMK A01 T01670005  RH  033%=      5-min Rain = 0
KVP1 200009Z 17011KT 17/01 A2981 RMK A01 T01670005  RH  033%=      5-min Rain = 0
KVP1 200010Z 17012KT 17/01 A2981 RMK A01 T01670006  RH  033%=      5-min Rain = 0
KVP1 200011Z 17011KT 17/01 A2981 RMK A01 T01680006  RH  033%=      5-min Rain = 0
KVP1 200012Z 17011KT 17/01 A2981 RMK A01 T01680006  RH  033%=      5-min Rain = 0
KVP1 200013Z 17012KT 17/01 A2981 RMK A01 T01680006  RH  033%=      5-min Rain = 0
KVP1 200014Z 17011KT 17/01 A2981 RMK A01 T01680006  RH  033%=      5-min Rain = 0
KVP1 200015Z 17011KT 17/01 A2981 RMK A01 T01670006  RH  034%=      5-min Rain = 0
KVP1 200016Z 17011KT 17/01 A2981 RMK A01 T01670007  RH  034%=      5-min Rain = 0
KVP1 200017Z 17010KT 17/01 A2981 RMK A01 T01660007  RH  034%=      5-min Rain = 0
KVP1 200018Z 17011KT 17/01 A2981 RMK A01 T01660006  RH  034%=      5-min Rain = 0
KVP1 200019Z 17010KT 17/01 A2981 RMK A01 T01650007  RH  034%=      5-min Rain = 0
KVP1 200020Z 17009KT 17/01 A2981 RMK A01 T01650007  RH  034%=      5-min Rain = 0
KVP1 200021Z 17010KT 16/01 A2981 RMK A01 T01640006  RH  034%=      5-min Rain = 0
KVP1 200022Z 17010KT 16/01 A2981 RMK A01 T01640007  RH  034%=      5-min Rain = 0
KVP1 200023Z 17010KT 16/01 A2981 RMK A01 T01640007  RH  035%=      5-min Rain = 0
KVP1 200024Z 17010KT 16/01 A2981 RMK A01 T01640007  RH  035%=      5-min Rain = 0
KVP1 200025Z 17010KT 16/01 A2981 RMK A01 T01640008  RH  035%=      5-min Rain = 0
KVP1 200026Z 17012KT 17/01 A2981 RMK A01 T01650008  RH  034%=      5-min Rain = 0
KVP1 200027Z 17011KT 17/01 A2981 RMK A01 T01650008  RH  035%=      5-min Rain = 0
KVP1 200028Z 17010KT 17/01 A2981 RMK A01 T01650008  RH  034%=      5-min Rain = 0
KVP1 200029Z 17010KT 17/01 A2981 RMK A01 T01660009  RH  035%=      5-min Rain = 0
KVP1 200030Z 17011KT 17/01 A2981 RMK A01 T01650009  RH  035%=      5-min Rain = 0
KVP1 200031Z 17010KT 17/01 A2981 RMK A01 T01650009  RH  035%=      5-min Rain = 0
KVP1 200032Z 17012KT 17/01 A2981 RMK A01 T01660009  RH  035%=      5-min Rain = 0
KVP1 200033Z 17011KT 17/01 A2981 RMK A01 T01660010  RH  035%=      5-min Rain = 0
KVP1 200034Z 17012KT 17/01 A2981 RMK A01 T01670010  RH  035%=      5-min Rain = 0
KVP1 200035Z 17012KT 17/01 A2981 RMK A01 T01680011  RH  035%=      5-min Rain = 0
KVP1 200036Z 17013KT 17/01 A2981 RMK A01 T01680011  RH  035%=      5-min Rain = 0
KVP1 200037Z 17011KT 17/01 A2981 RMK A01 T01680011  RH  035%=      5-min Rain = 0
KVP1 200038Z 17011KT 17/01 A2981 RMK A01 T01690012  RH  035%=      5-min Rain = 0
KVP1 200039Z 17011KT 17/01 A2982 RMK A01 T01690012  RH  035%=      5-min Rain = 0
KVP1 200040Z 17012KT 17/01 A2981 RMK A01 T01680012  RH  035%=      5-min Rain = 0
KVP1 200041Z 17011KT 17/01 A2981 RMK A01 T01680012  RH  035%=      5-min Rain = 0
KVP1 200042Z 17011KT 17/01 A2981 RMK A01 T01680012  RH  035%=      5-min Rain = 0
KVP1 200043Z 17010KT 17/01 A2982 RMK A01 T01680012  RH  035%=      5-min Rain = 0
KVP1 200044Z 17012KT 17/01 A2981 RMK A01 T01670011  RH  035%=      5-min Rain = 0
KVP1 200045Z 17012KT 17/01 A2981 RMK A01 T01670012  RH  035%=      5-min Rain = 0
KVP1 200046Z 17012KT 17/01 A2981 RMK A01 T01680012  RH  035%=      5-min Rain = 0
KVP1 200047Z 17012KT 17/01 A2981 RMK A01 T01680012  RH  035%=      5-min Rain = 0
KVP1 200048Z 17012KT 17/01 A2981 RMK A01 T01680013  RH  035%=      5-min Rain = 0
KVP1 200049Z 17012KT 17/01 A2981 RMK A01 T01680013  RH  035%=      5-min Rain = 0
KVP1 200050Z 17012KT 17/01 A2981 RMK A01 T01680013  RH  035%=      5-min Rain = 0
KVP1 200051Z 17012KT 17/01 A2981 RMK A01 T01680013  RH  035%=      5-min Rain = 0
KVP1 200052Z 17011KT 17/01 A2981 RMK A01 T01680013  RH  035%=      5-min Rain = 0
KVP1 200053Z 17012KT 17/01 A2981 RMK A01 T01680013  RH  035%=      5-min Rain = 0
KVP1 200054Z 17011KT 17/01 A2981 RMK A01 T01680014  RH  035%=      5-min Rain = 0
KVP1 200055Z 16011KT 17/01 A2981 RMK A01 T01670014  RH  035%=      5-min Rain = 0
KVP1 200056Z 17012KT 17/01 A2981 RMK A01 T01660014  RH  036%=      5-min Rain = 0
KVP1 200057Z 17012KT 17/01 A2981 RMK A01 T01660013  RH  036%=      5-min Rain = 0
KVP1 200058Z 17011KT 17/01 A2981 RMK A01 T01660013  RH  036%=      5-min Rain = 0
KVP1 200059Z 17011KT 17/01 A2981 RMK A01 T01660014  RH  036%=      5-min Rain = 0
KVP1 200100Z 17011KT 17/01 A2981 RMK A01 T01660014  RH  036%=      5-min Rain = 0
KVP1 200101Z 17011KT 16/01 A2981 RMK A01 T01640013  RH  036%=      5-min Rain = 0
KVP1 200102Z 17011KT 16/01 A2981 RMK A01 T01640014  RH  036%=      5-min Rain = 0
KVP1 200103Z 17011KT 16/01 A2981 RMK A01 T01640014  RH  036%=      5-min Rain = 0
KVP1 200104Z 17010KT 16/01 A2981 RMK A01 T01630013  RH  036%=      5-min Rain = 0
KVP1 200105Z 17011KT 16/01 A2981 RMK A01 T01620014  RH  037%=      5-min Rain = 0
KVP1 200106Z 17011KT 16/01 A2981 RMK A01 T01620014  RH  037%=      5-min Rain = 0
KVP1 200107Z 17011KT 16/01 A2981 RMK A01 T01620014  RH  037%=      5-min Rain = 0
KVP1 200108Z 17011KT 16/01 A2981 RMK A01 T01620014  RH  037%=      5-min Rain = 0
KVP1 200109Z 17012KT 16/01 A2981 RMK A01 T01620014  RH  037%=      5-min Rain = 0
KVP1 200110Z 17012KT 16/02 A2981 RMK A01 T01620015  RH  037%=      5-min Rain = 0
KVP1 200111Z 18010KT 16/02 A2981 RMK A01 T01620015  RH  037%=      5-min Rain = 0
KVP1 200112Z 17010KT 16/02 A2981 RMK A01 T01610015  RH  037%=      5-min Rain = 0
KVP1 200113Z 17011KT 16/01 A2981 RMK A01 T01600014  RH  037%=      5-min Rain = 0
KVP1 200114Z 17011KT 16/02 A2981 RMK A01 T01600015  RH  038%=      5-min Rain = 0
KVP1 200115Z 17011KT 16/02 A2981 RMK A01 T01590015  RH  038%=      5-min Rain = 0
KVP1 200116Z 17010KT 16/02 A2981 RMK A01 T01590015  RH  038%=      5-min Rain = 0
KVP1 200117Z 17011KT 16/02 A2981 RMK A01 T01590015  RH  038%=      5-min Rain = 0
KVP1 200118Z 17010KT 16/02 A2981 RMK A01 T01590015  RH  038%=      5-min Rain = 0
KVP1 200119Z 17011KT 16/02 A2981 RMK A01 T01580015  RH  038%=      5-min Rain = 0
KVP1 200120Z 17011KT 16/02 A2981 RMK A01 T01580015  RH  038%=      5-min Rain = 0
KVP1 200121Z 17009KT 16/01 A2981 RMK A01 T01570014  RH  038%=      5-min Rain = 0
KVP1 200122Z 17010KT 16/01 A2981 RMK A01 T01570014  RH  038%=      5-min Rain = 0
KVP1 200123Z 17011KT 16/01 A2981 RMK A01 T01560014  RH  038%=      5-min Rain = 0
KVP1 200124Z 17011KT 16/01 A2981 RMK A01 T01560014  RH  038%=      5-min Rain = 0
KVP1 200125Z 17011KT 16/01 A2981 RMK A01 T01560014  RH  038%=      5-min Rain = 0
KVP1 200126Z 17012KT 16/01 A2981 RMK A01 T01570014  RH  038%=      5-min Rain = 0
KVP1 200127Z 17010KT 16/02 A2981 RMK A01 T01570015  RH  038%=      5-min Rain = 0
KVP1 200128Z 17011KT 16/01 A2981 RMK A01 T01570014  RH  038%=      5-min Rain = 0
KVP1 200129Z 17011KT 16/01 A2981 RMK A01 T01570014  RH  038%=      5-min Rain = 0
KVP1 200130Z 17011KT 16/01 A2981 RMK A01 T01560014  RH  038%=      5-min Rain = 0
KVP1 200131Z 17010KT 16/02 A2981 RMK A01 T01570015  RH  038%=      5-min Rain = 0
KVP1 200132Z 17011KT 16/02 A2981 RMK A01 T01570015  RH  038%=      5-min Rain = 0
KVP1 200133Z 17011KT 16/01 A2981 RMK A01 T01570014  RH  038%=      5-min Rain = 0
KVP1 200134Z 17010KT 16/01 A2981 RMK A01 T01570014  RH  038%=      5-min Rain = 0
KVP1 200135Z 17011KT 16/01 A2981 RMK A01 T01570014  RH  038%=      5-min Rain = 0
KVP1 200136Z 17011KT 16/02 A2981 RMK A01 T01570015  RH  038%=      5-min Rain = 0
KVP1 200137Z 17011KT 16/02 A2981 RMK A01 T01580015  RH  038%=      5-min Rain = 0
KVP1 200138Z 17011KT 16/02 A2981 RMK A01 T01580015  RH  038%=      5-min Rain = 0
KVP1 200139Z 17010KT 16/02 A2981 RMK A01 T01580015  RH  038%=      5-min Rain = 0
KVP1 200140Z 17012KT 16/02 A2981 RMK A01 T01580015  RH  038%=      5-min Rain = 0
KVP1 200141Z 17011KT 16/02 A2981 RMK A01 T01570015  RH  038%=      5-min Rain = 0
KVP1 200142Z 17011KT 16/02 A2981 RMK A01 T01580015  RH  038%=      5-min Rain = 0
KVP1 200143Z 17012KT 16/02 A2981 RMK A01 T01580015  RH  038%=      5-min Rain = 0
KVP1 200144Z 17011KT 16/02 A2981 RMK A01 T01580015  RH  038%=      5-min Rain = 0
KVP1 200145Z 17010KT 16/02 A2981 RMK A01 T01580015  RH  038%=      5-min Rain = 0
KVP1 200146Z 17011KT 16/02 A2981 RMK A01 T01580015  RH  038%=      5-min Rain = 0
KVP1 200147Z 17011KT 16/02 A2981 RMK A01 T01580015  RH  038%=      5-min Rain = 0
KVP1 200148Z 17012KT 16/02 A2981 RMK A01 T01580015  RH  038%=      5-min Rain = 0
KVP1 200149Z 17012KT 16/02 A2981 RMK A01 T01590015  RH  038%=      5-min Rain = 0
KVP1 200150Z 16011KT 16/02 A2981 RMK A01 T01600015  RH  038%=      5-min Rain = 0
KVP1 200151Z 17011KT 16/02 A2981 RMK A01 T01600015  RH  038%=      5-min Rain = 0
KVP1 200152Z 17011KT 16/02 A2981 RMK A01 T01590015  RH  038%=      5-min Rain = 0
KVP1 200153Z 17011KT 16/01 A2981 RMK A01 T01580014  RH  038%=      5-min Rain = 0
KVP1 200154Z 16012KT 16/02 A2981 RMK A01 T01580015  RH  038%=      5-min Rain = 0
KVP1 200155Z 17011KT 16/02 A2981 RMK A01 T01580015  RH  038%=      5-min Rain = 0
KVP1 200156Z 16010KT 16/02 A2981 RMK A01 T01580015  RH  038%=      5-min Rain = 0
KVP1 200157Z 17011KT 16/01 A2981 RMK A01 T01570014  RH  038%=      5-min Rain = 0
KVP1 200158Z 17012KT 16/02 A2981 RMK A01 T01570015  RH  038%=      5-min Rain = 0
KVP1 200159Z 17011KT 16/01 A2981 RMK A01 T01570014  RH  038%=      5-min Rain = 0
KVP1 200200Z 17011KT 16/01 A2981 RMK A01 T01560014  RH  038%=      5-min Rain = 0
KVP1 200201Z 17012KT 16/02 A2981 RMK A01 T01560015  RH  038%=      5-min Rain = 0
KVP1 200202Z 17011KT 16/02 A2981 RMK A01 T01560015  RH  038%=      5-min Rain = 0
KVP1 200203Z 17010KT 16/02 A2982 RMK A01 T01550015  RH  039%=      5-min Rain = 0
KVP1 200204Z 17011KT 16/02 A2982 RMK A01 T01550015  RH  039%=      5-min Rain = 0
KVP1 200205Z 17011KT 15/02 A2982 RMK A01 T01540015  RH  039%=      5-min Rain = 0
KVP1 200206Z 17010KT 15/02 A2982 RMK A01 T01530015  RH  039%=      5-min Rain = 0
KVP1 200207Z 17011KT 15/01 A2981 RMK A01 T01520014  RH  039%=      5-min Rain = 0
KVP1 200208Z 17011KT 15/01 A2981 RMK A01 T01520014  RH  039%=      5-min Rain = 0
KVP1 200209Z 17012KT 15/02 A2981 RMK A01 T01520015  RH  039%=      5-min Rain = 0
KVP1 200210Z 17011KT 15/02 A2981 RMK A01 T01520015  RH  039%=      5-min Rain = 0
KVP1 200211Z 17011KT 15/02 A2981 RMK A01 T01520015  RH  039%=      5-min Rain = 0
KVP1 200212Z 17012KT 15/02 A2981 RMK A01 T01520015  RH  039%=      5-min Rain = 0
KVP1 200213Z 17011KT 15/02 A2981 RMK A01 T01520015  RH  040%=      5-min Rain = 0
KVP1 200214Z 17011KT 15/02 A2981 RMK A01 T01520015  RH  039%=      5-min Rain = 0
KVP1 200215Z 17011KT 15/02 A2981 RMK A01 T01510015  RH  040%=      5-min Rain = 0
KVP1 200216Z 17011KT 15/02 A2981 RMK A01 T01500015  RH  040%=      5-min Rain = 0
KVP1 200217Z 17011KT 15/02 A2981 RMK A01 T01500015  RH  040%=      5-min Rain = 0
KVP1 200218Z 17012KT 15/02 A2981 RMK A01 T01490015  RH  040%=      5-min Rain = 0
KVP1 200219Z 17012KT 15/02 A2981 RMK A01 T01490015  RH  040%=      5-min Rain = 0
KVP1 200220Z 17012KT 15/02 A2981 RMK A01 T01490015  RH  040%=      5-min Rain = 0
KVP1 200221Z 17011KT 15/02 A2982 RMK A01 T01480015  RH  040%=      5-min Rain = 0
KVP1 200222Z 18012KT 15/02 A2982 RMK A01 T01470015  RH  041%=      5-min Rain = 0
KVP1 200223Z 17012KT 15/02 A2982 RMK A01 T01470015  RH  041%=      5-min Rain = 0
KVP1 200224Z 17012KT 15/02 A2982 RMK A01 T01460015  RH  041%=      5-min Rain = 0
KVP1 200225Z 17013KT 15/02 A2982 RMK A01 T01460015  RH  041%=      5-min Rain = 0
KVP1 200226Z 17012KT 15/02 A2982 RMK A01 T01470016  RH  041%=      5-min Rain = 0
KVP1 200227Z 17013KT 15/02 A2982 RMK A01 T01460015  RH  041%=      5-min Rain = 0
KVP1 200228Z 17011KT 15/02 A2982 RMK A01 T01460016  RH  041%=      5-min Rain = 0
KVP1 200229Z 17011KT 15/02 A2982 RMK A01 T01450015  RH  041%=      5-min Rain = 0
KVP1 200230Z 17012KT 14/02 A2982 RMK A01 T01440016  RH  042%=      5-min Rain = 0
KVP1 200231Z 17011KT 14/02 A2982 RMK A01 T01440016  RH  042%=      5-min Rain = 0
KVP1 200232Z 17011KT 14/02 A2982 RMK A01 T01440016  RH  042%=      5-min Rain = 0
KVP1 200233Z 17010KT 14/02 A2982 RMK A01 T01440016  RH  042%=      5-min Rain = 0
KVP1 200234Z 17011KT 14/02 A2982 RMK A01 T01430015  RH  042%=      5-min Rain = 0
KVP1 200235Z 17011KT 14/02 A2982 RMK A01 T01420016  RH  042%=      5-min Rain = 0
KVP1 200236Z 17011KT 14/02 A2982 RMK A01 T01420016  RH  042%=      5-min Rain = 0
KVP1 200237Z 17011KT 14/02 A2982 RMK A01 T01410016  RH  043%=      5-min Rain = 0
KVP1 200238Z 17010KT 14/02 A2982 RMK A01 T01400016  RH  043%=      5-min Rain = 0
KVP1 200239Z 18010KT 14/02 A2982 RMK A01 T01390016  RH  043%=      5-min Rain = 0
KVP1 200240Z 17011KT 14/02 A2982 RMK A01 T01370016  RH  044%=      5-min Rain = 0
KVP1 200241Z 17010KT 14/02 A2982 RMK A01 T01360016  RH  044%=      5-min Rain = 0
KVP1 200242Z 18010KT 14/02 A2982 RMK A01 T01350015  RH  044%=      5-min Rain = 0
KVP1 200243Z 18011KT 13/02 A2982 RMK A01 T01340016  RH  044%=      5-min Rain = 0
KVP1 200244Z 18011KT 13/02 A2982 RMK A01 T01340016  RH  045%=      5-min Rain = 0
KVP1 200245Z 17011KT 13/02 A2982 RMK A01 T01340016  RH  044%=      5-min Rain = 0
KVP1 200246Z 18011KT 13/02 A2982 RMK A01 T01340016  RH  044%=      5-min Rain = 0
KVP1 200247Z 18011KT 14/02 A2982 RMK A01 T01350016  RH  044%=      5-min Rain = 0
KVP1 200248Z 18011KT 14/02 A2982 RMK A01 T01350017  RH  044%=      5-min Rain = 0
KVP1 200249Z 18011KT 14/02 A2982 RMK A01 T01360017  RH  044%=      5-min Rain = 0
KVP1 200250Z 18010KT 14/02 A2982 RMK A01 T01360017  RH  044%=      5-min Rain = 0
KVP1 200251Z 17011KT 14/02 A2982 RMK A01 T01350017  RH  044%=      5-min Rain = 0
KVP1 200252Z 18010KT 14/02 A2982 RMK A01 T01350017  RH  045%=      5-min Rain = 0
KVP1 200253Z 18011KT 13/02 A2982 RMK A01 T01340017  RH  045%=      5-min Rain = 0
KVP1 200254Z 18010KT 13/02 A2982 RMK A01 T01340016  RH  045%=      5-min Rain = 0
KVP1 200255Z 18010KT 13/02 A2982 RMK A01 T01330017  RH  045%=      5-min Rain = 0
KVP1 200256Z 18010KT 13/02 A2982 RMK A01 T01320016  RH  045%=      5-min Rain = 0
KVP1 200257Z 18010KT 13/02 A2982 RMK A01 T01310016  RH  046%=      5-min Rain = 0
KVP1 200258Z 18010KT 13/02 A2982 RMK A01 T01300016  RH  046%=      5-min Rain = 0
KVP1 200259Z 18009KT 13/02 A2982 RMK A01 T01290016  RH  046%=      5-min Rain = 0
KVP1 200300Z 18010KT 13/02 A2982 RMK A01 T01280016  RH  046%=      5-min Rain = 0
KVP1 200301Z 18010KT 13/02 A2982 RMK A01 T01270016  RH  047%=      5-min Rain = 0
KVP1 200302Z 18009KT 13/02 A2982 RMK A01 T01270016  RH  047%=      5-min Rain = 0
KVP1 200303Z 18010KT 13/02 A2982 RMK A01 T01260016  RH  047%=      5-min Rain = 0
KVP1 200304Z 18009KT 13/02 A2982 RMK A01 T01260016  RH  047%=      5-min Rain = 0
KVP1 200305Z 18010KT 13/02 A2982 RMK A01 T01260016  RH  047%=      5-min Rain = 0
KVP1 200306Z 18009KT 13/02 A2982 RMK A01 T01260016  RH  047%=      5-min Rain = 0
KVP1 200307Z 17010KT 13/02 A2982 RMK A01 T01250015  RH  047%=      5-min Rain = 0
KVP1 200308Z 18010KT 12/02 A2982 RMK A01 T01240015  RH  047%=      5-min Rain = 0
KVP1 200309Z 18010KT 12/02 A2982 RMK A01 T01240015  RH  047%=      5-min Rain = 0
KVP1 200310Z 17010KT 13/02 A2982 RMK A01 T01250016  RH  047%=      5-min Rain = 0
KVP1 200311Z 17009KT 12/02 A2982 RMK A01 T01240015  RH  047%=      5-min Rain = 0
KVP1 200312Z 17010KT 12/02 A2982 RMK A01 T01230015  RH  047%=      5-min Rain = 0
KVP1 200313Z 18010KT 12/02 A2982 RMK A01 T01230015  RH  048%=      5-min Rain = 0
KVP1 200314Z 18010KT 12/01 A2982 RMK A01 T01220014  RH  048%=      5-min Rain = 0
KVP1 200315Z 17009KT 12/01 A2982 RMK A01 T01210014  RH  048%=      5-min Rain = 0
KVP1 200316Z 18010KT 12/01 A2982 RMK A01 T01200014  RH  048%=      5-min Rain = 0
KVP1 200317Z 17010KT 12/01 A2982 RMK A01 T01190014  RH  048%=      5-min Rain = 0
KVP1 200318Z 18009KT 12/01 A2982 RMK A01 T01190014  RH  049%=      5-min Rain = 0
KVP1 200319Z 18009KT 12/01 A2982 RMK A01 T01180014  RH  049%=      5-min Rain = 0
KVP1 200320Z 18009KT 12/01 A2982 RMK A01 T01160013  RH  049%=      5-min Rain = 0
KVP1 200321Z 18009KT 12/01 A2982 RMK A01 T01150013  RH  050%=      5-min Rain = 0
KVP1 200322Z 17009KT 12/01 A2982 RMK A01 T01150013  RH  050%=      5-min Rain = 0
KVP1 200323Z 18009KT 11/01 A2982 RMK A01 T01140013  RH  050%=      5-min Rain = 0
KVP1 200324Z 17009KT 11/01 A2982 RMK A01 T01130013  RH  050%=      5-min Rain = 0
KVP1 200325Z 17009KT 11/01 A2982 RMK A01 T01130013  RH  050%=      5-min Rain = 0
KVP1 200326Z 17009KT 11/01 A2982 RMK A01 T01120013  RH  050%=      5-min Rain = 0
KVP1 200327Z 17009KT 11/01 A2982 RMK A01 T01110013  RH  051%=      5-min Rain = 0
KVP1 200328Z 17009KT 11/01 A2982 RMK A01 T01100013  RH  051%=      5-min Rain = 0
KVP1 200329Z 17009KT 11/01 A2982 RMK A01 T01100013  RH  051%=      5-min Rain = 0
KVP1 200330Z 17008KT 11/01 A2982 RMK A01 T01090013  RH  051%=      5-min Rain = 0
KVP1 200331Z 17008KT 11/01 A2982 RMK A01 T01090013  RH  051%=      5-min Rain = 0
KVP1 200332Z 17009KT 11/01 A2982 RMK A01 T01090013  RH  051%=      5-min Rain = 0
KVP1 200333Z 17008KT 11/01 A2982 RMK A01 T01090012  RH  051%=      5-min Rain = 0
KVP1 200334Z 17009KT 11/01 A2982 RMK A01 T01080012  RH  051%=      5-min Rain = 0
KVP1 200335Z 17009KT 11/01 A2982 RMK A01 T01080012  RH  052%=      5-min Rain = 0
KVP1 200336Z 17008KT 11/01 A2982 RMK A01 T01070012  RH  052%=      5-min Rain = 0
KVP1 200337Z 17008KT 11/01 A2982 RMK A01 T01080012  RH  052%=      5-min Rain = 0
KVP1 200338Z 17008KT 11/01 A2982 RMK A01 T01070012  RH  052%=      5-min Rain = 0
KVP1 200339Z 17009KT 11/01 A2982 RMK A01 T01070012  RH  052%=      5-min Rain = 0
KVP1 200340Z 17009KT 11/01 A2982 RMK A01 T01070013  RH  052%=      5-min Rain = 0
KVP1 200341Z 17008KT 11/01 A2982 RMK A01 T01070013  RH  052%=      5-min Rain = 0
KVP1 200342Z 17008KT 11/01 A2982 RMK A01 T01060013  RH  052%=      5-min Rain = 0
KVP1 200343Z 17008KT 11/01 A2982 RMK A01 T01060013  RH  053%=      5-min Rain = 0
KVP1 200344Z 17008KT 11/01 A2982 RMK A01 T01050012  RH  053%=      5-min Rain = 0
KVP1 200345Z 17008KT 10/01 A2982 RMK A01 T01040012  RH  053%=      5-min Rain = 0
KVP1 200346Z 17008KT 10/01 A2982 RMK A01 T01040013  RH  053%=      5-min Rain = 0
KVP1 200347Z 17008KT 10/01 A2982 RMK A01 T01030012  RH  053%=      5-min Rain = 0
KVP1 200348Z 17008KT 10/01 A2982 RMK A01 T01030012  RH  053%=      5-min Rain = 0
KVP1 200349Z 17008KT 10/01 A2982 RMK A01 T01020012  RH  053%=      5-min Rain = 0
KVP1 200350Z 17008KT 10/01 A2982 RMK A01 T01010011  RH  054%=      5-min Rain = 0
KVP1 200351Z 17008KT 10/01 A2982 RMK A01 T01000011  RH  054%=      5-min Rain = 0
KVP1 200352Z 17008KT 10/01 A2982 RMK A01 T00990011  RH  054%=      5-min Rain = 0
KVP1 200353Z 18008KT 10/01 A2982 RMK A01 T00980011  RH  055%=      5-min Rain = 0
KVP1 200354Z 18009KT 10/01 A2982 RMK A01 T00970011  RH  055%=      5-min Rain = 0
KVP1 200355Z 17008KT 10/01 A2982 RMK A01 T00960011  RH  055%=      5-min Rain = 0
KVP1 200356Z 17008KT 10/01 A2981 RMK A01 T00950010  RH  055%=      5-min Rain = 0
KVP1 200357Z 17008KT 10/01 A2981 RMK A01 T00950010  RH  056%=      5-min Rain = 0
KVP1 200358Z 18009KT 09/01 A2981 RMK A01 T00940010  RH  056%=      5-min Rain = 0
KVP1 200359Z 18009KT 09/01 A2981 RMK A01 T00940010  RH  056%=      5-min Rain = 0
KVP1 200400Z 18009KT 09/01 A2981 RMK A01 T00940010  RH  056%=      5-min Rain = 0
KVP1 200401Z 18009KT 09/01 A2982 RMK A01 T00940010  RH  056%=      5-min Rain = 0
KVP1 200402Z 18009KT 09/01 A2982 RMK A01 T00930010  RH  056%=      5-min Rain = 0
KVP1 200403Z 18009KT 09/01 A2982 RMK A01 T00920009  RH  056%=      5-min Rain = 0
KVP1 200404Z 18008KT 09/01 A2982 RMK A01 T00920010  RH  056%=      5-min Rain = 0
KVP1 200405Z 18009KT 09/01 A2982 RMK A01 T00920009  RH  056%=      5-min Rain = 0
KVP1 200406Z 18009KT 09/01 A2982 RMK A01 T00920010  RH  056%=      5-min Rain = 0
KVP1 200407Z 18009KT 09/01 A2982 RMK A01 T00920010  RH  057%=      5-min Rain = 0
KVP1 200408Z 18008KT 09/01 A2981 RMK A01 T00920010  RH  057%=      5-min Rain = 0
KVP1 200409Z 18008KT 09/01 A2981 RMK A01 T00920010  RH  057%=      5-min Rain = 0
KVP1 200410Z 17008KT 09/01 A2981 RMK A01 T00910009  RH  056%=      5-min Rain = 0
KVP1 200411Z 17008KT 09/01 A2981 RMK A01 T00920009  RH  056%=      5-min Rain = 0
KVP1 200412Z 18008KT 09/01 A2981 RMK A01 T00920010  RH  056%=      5-min Rain = 0
KVP1 200413Z 17008KT 09/01 A2981 RMK A01 T00920010  RH  056%=      5-min Rain = 0
KVP1 200414Z 18008KT 09/01 A2981 RMK A01 T00920010  RH  056%=      5-min Rain = 0
KVP1 200415Z 18009KT 09/01 A2981 RMK A01 T00920010  RH  056%=      5-min Rain = 0
KVP1 200416Z 18008KT 09/01 A2981 RMK A01 T00920010  RH  057%=      5-min Rain = 0
KVP1 200417Z 18009KT 09/01 A2981 RMK A01 T00920011  RH  057%=      5-min Rain = 0
KVP1 200418Z 18009KT 09/01 A2981 RMK A01 T00920011  RH  057%=      5-min Rain = 0
KVP1 200419Z 18008KT 09/01 A2981 RMK A01 T00920011  RH  057%=      5-min Rain = 0
KVP1 200420Z 18009KT 09/01 A2981 RMK A01 T00910010  RH  057%=      5-min Rain = 0
KVP1 200421Z 18009KT 09/01 A2981 RMK A01 T00900010  RH  057%=      5-min Rain = 0
KVP1 200422Z 18009KT 09/01 A2981 RMK A01 T00900010  RH  057%=      5-min Rain = 0
KVP1 200423Z 18009KT 09/01 A2981 RMK A01 T00900010  RH  057%=      5-min Rain = 0
KVP1 200424Z 18009KT 09/01 A2981 RMK A01 T00910010  RH  057%=      5-min Rain = 0
KVP1 200425Z 18010KT 09/01 A2981 RMK A01 T00910010  RH  057%=      5-min Rain = 0
KVP1 200426Z 18010KT 09/01 A2981 RMK A01 T00920010  RH  057%=      5-min Rain = 0
KVP1 200427Z 18009KT 09/01 A2981 RMK A01 T00930011  RH  056%=      5-min Rain = 0
KVP1 200428Z 18009KT 09/01 A2981 RMK A01 T00930010  RH  056%=      5-min Rain = 0
KVP1 200429Z 18009KT 09/01 A2981 RMK A01 T00930010  RH  056%=      5-min Rain = 0
KVP1 200430Z 18009KT 09/01 A2981 RMK A01 T00940011  RH  056%=      5-min Rain = 0
KVP1 200431Z 18009KT 09/01 A2981 RMK A01 T00940010  RH  056%=      5-min Rain = 0
KVP1 200432Z 18009KT 09/01 A2981 RMK A01 T00940010  RH  056%=      5-min Rain = 0
KVP1 200433Z 18009KT 09/01 A2981 RMK A01 T00940011  RH  056%=      5-min Rain = 0
KVP1 200434Z 18009KT 09/01 A2981 RMK A01 T00940010  RH  056%=      5-min Rain = 0
KVP1 200435Z 18008KT 10/01 A2981 RMK A01 T00950011  RH  056%=      5-min Rain = 0
KVP1 200436Z 18008KT 10/01 A2981 RMK A01 T00950011  RH  056%=      5-min Rain = 0
KVP1 200437Z 18008KT 10/01 A2981 RMK A01 T00950011  RH  056%=      5-min Rain = 0
KVP1 200438Z 18008KT 10/01 A2981 RMK A01 T00950012  RH  056%=      5-min Rain = 0
KVP1 200439Z 18008KT 09/01 A2981 RMK A01 T00940011  RH  056%=      5-min Rain = 0
KVP1 200440Z 19008KT 09/01 A2981 RMK A01 T00940011  RH  056%=      5-min Rain = 0
KVP1 200441Z 19008KT 09/01 A2981 RMK A01 T00940012  RH  056%=      5-min Rain = 0
KVP1 200442Z 19008KT 09/01 A2981 RMK A01 T00940012  RH  056%=      5-min Rain = 0
KVP1 200443Z 19007KT 09/01 A2981 RMK A01 T00940012  RH  056%=      5-min Rain = 0
KVP1 200444Z 19007KT 09/01 A2981 RMK A01 T00940011  RH  056%=      5-min Rain = 0
KVP1 200445Z 19007KT 09/01 A2981 RMK A01 T00940011  RH  056%=      5-min Rain = 0
KVP1 200446Z 19007KT 09/01 A2981 RMK A01 T00930011  RH  057%=      5-min Rain = 0
KVP1 200447Z 19007KT 09/01 A2981 RMK A01 T00930011  RH  057%=      5-min Rain = 0
KVP1 200448Z 19007KT 09/01 A2981 RMK A01 T00930011  RH  057%=      5-min Rain = 0
KVP1 200449Z 19007KT 09/01 A2981 RMK A01 T00930012  RH  057%=      5-min Rain = 0
KVP1 200450Z 18007KT 09/01 A2981 RMK A01 T00930011  RH  057%=      5-min Rain = 0
KVP1 200451Z 19007KT 09/01 A2981 RMK A01 T00930011  RH  057%=      5-min Rain = 0
KVP1 200452Z 19007KT 09/01 A2981 RMK A01 T00930012  RH  057%=      5-min Rain = 0
KVP1 200453Z 19007KT 09/01 A2981 RMK A01 T00930012  RH  057%=      5-min Rain = 0
KVP1 200454Z 18008KT 09/01 A2981 RMK A01 T00930012  RH  057%=      5-min Rain = 0
KVP1 200455Z 19007KT 09/01 A2981 RMK A01 T00930012  RH  057%=      5-min Rain = 0
KVP1 200456Z 19008KT 09/01 A2981 RMK A01 T00940012  RH  056%=      5-min Rain = 0
KVP1 200457Z 19008KT 09/01 A2981 RMK A01 T00940012  RH  056%=      5-min Rain = 0
KVP1 200458Z 19008KT 09/01 A2981 RMK A01 T00940012  RH  056%=      5-min Rain = 0
KVP1 200459Z 19008KT 10/01 A2981 RMK A01 T00950012  RH  056%=      5-min Rain = 0
KVP1 200500Z 19009KT 10/01 A2981 RMK A01 T00960012  RH  056%=      5-min Rain = 0
KVP1 200501Z 19009KT 10/01 A2981 RMK A01 T00960012  RH  056%=      5-min Rain = 0
KVP1 200502Z 19008KT 10/01 A2981 RMK A01 T00960012  RH  056%=      5-min Rain = 0
KVP1 200503Z 19008KT 10/01 A2981 RMK A01 T00960012  RH  056%=      5-min Rain = 0
KVP1 200504Z 19008KT 10/01 A2981 RMK A01 T00960012  RH  056%=      5-min Rain = 0
KVP1 200505Z 19009KT 10/01 A2981 RMK A01 T00960012  RH  056%=      5-min Rain = 0
KVP1 200506Z 19009KT 10/01 A2981 RMK A01 T00960012  RH  056%=      5-min Rain = 0
KVP1 200507Z 19009KT 10/01 A2981 RMK A01 T00960012  RH  056%=      5-min Rain = 0
KVP1 200508Z 19009KT 10/01 A2981 RMK A01 T00960012  RH  056%=      5-min Rain = 0
KVP1 200509Z 19008KT 10/01 A2981 RMK A01 T00970012  RH  056%=      5-min Rain = 0
KVP1 200510Z 19009KT 10/01 A2981 RMK A01 T00970013  RH  056%=      5-min Rain = 0
KVP1 200511Z 19009KT 10/01 A2981 RMK A01 T00980013  RH  056%=      5-min Rain = 0
KVP1 200512Z 19009KT 10/01 A2981 RMK A01 T00990014  RH  055%=      5-min Rain = 0
KVP1 200513Z 19009KT 10/01 A2981 RMK A01 T01010014  RH  055%=      5-min Rain = 0
KVP1 200514Z 19010KT 10/02 A2981 RMK A01 T01030015  RH  054%=      5-min Rain = 0
KVP1 200515Z 20010KT 11/02 A2981 RMK A01 T01060016  RH  054%=      5-min Rain = 0
KVP1 200516Z 19010KT 11/02 A2981 RMK A01 T01090017  RH  053%=      5-min Rain = 0
KVP1 200517Z 20010KT 11/02 A2981 RMK A01 T01120017  RH  052%=      5-min Rain = 0
KVP1 200518Z 19010KT 12/02 A2981 RMK A01 T01150018  RH  051%=      5-min Rain = 0
KVP1 200519Z 19010KT 12/02 A2981 RMK A01 T01170018  RH  050%=      5-min Rain = 0
KVP1 200520Z 19010KT 12/02 A2981 RMK A01 T01200018  RH  050%=      5-min Rain = 0
KVP1 200521Z 19011KT 12/02 A2981 RMK A01 T01210018  RH  049%=      5-min Rain = 0
KVP1 200522Z 19010KT 12/02 A2981 RMK A01 T01230018  RH  049%=      5-min Rain = 0
KVP1 200523Z 19010KT 13/02 A2981 RMK A01 T01250018  RH  048%=      5-min Rain = 0
KVP1 200524Z 19010KT 13/02 A2981 RMK A01 T01260019  RH  048%=      5-min Rain = 0
KVP1 200525Z 19010KT 13/02 A2981 RMK A01 T01270019  RH  048%=      5-min Rain = 0
KVP1 200526Z 19010KT 13/02 A2981 RMK A01 T01280019  RH  048%=      5-min Rain = 0
KVP1 200527Z 19010KT 13/02 A2981 RMK A01 T01280019  RH  047%=      5-min Rain = 0
KVP1 200528Z 19011KT 13/02 A2981 RMK A01 T01280019  RH  047%=      5-min Rain = 0
KVP1 200529Z 19010KT 13/02 A2981 RMK A01 T01280019  RH  047%=      5-min Rain = 0
KVP1 200530Z 19011KT 13/02 A2981 RMK A01 T01270019  RH  048%=      5-min Rain = 0
KVP1 200531Z 19012KT 13/02 A2981 RMK A01 T01270019  RH  048%=      5-min Rain = 0
KVP1 200532Z 19011KT 13/02 A2981 RMK A01 T01260019  RH  048%=      5-min Rain = 0
KVP1 200533Z 19011KT 13/02 A2981 RMK A01 T01260019  RH  048%=      5-min Rain = 0
KVP1 200534Z 19011KT 13/02 A2981 RMK A01 T01250019  RH  048%=      5-min Rain = 0
KVP1 200535Z 19011KT 13/02 A2981 RMK A01 T01250019  RH  048%=      5-min Rain = 0
KVP1 200536Z 19011KT 13/02 A2981 RMK A01 T01250019  RH  048%=      5-min Rain = 0
KVP1 200537Z 19011KT 12/02 A2981 RMK A01 T01240019  RH  049%=      5-min Rain = 0
KVP1 200538Z 19010KT 12/02 A2981 RMK A01 T01240019  RH  049%=      5-min Rain = 0
KVP1 200539Z 19011KT 12/02 A2981 RMK A01 T01230019  RH  049%=      5-min Rain = 0
KVP1 200540Z 19010KT 12/02 A2981 RMK A01 T01220019  RH  049%=      5-min Rain = 0
KVP1 200541Z 19011KT 12/02 A2981 RMK A01 T01220019  RH  049%=      5-min Rain = 0
KVP1 200542Z 19010KT 12/02 A2981 RMK A01 T01220019  RH  049%=      5-min Rain = 0
KVP1 200543Z 19009KT 12/02 A2981 RMK A01 T01220019  RH  050%=      5-min Rain = 0
KVP1 200544Z 19009KT 12/02 A2981 RMK A01 T01220020  RH  050%=      5-min Rain = 0
KVP1 200545Z 20009KT 12/02 A2981 RMK A01 T01210019  RH  050%=      5-min Rain = 0
KVP1 200546Z 19009KT 12/02 A2981 RMK A01 T01200019  RH  050%=      5-min Rain = 0
KVP1 200547Z 19009KT 12/02 A2981 RMK A01 T01200020  RH  050%=      5-min Rain = 0
KVP1 200548Z 19010KT 12/02 A2981 RMK A01 T01200020  RH  050%=      5-min Rain = 0
KVP1 200549Z 19010KT 12/02 A2981 RMK A01 T01200020  RH  050%=      5-min Rain = 0
KVP1 200550Z 19011KT 12/02 A2981 RMK A01 T01200020  RH  050%=      5-min Rain = 0
KVP1 200551Z 19010KT 12/02 A2981 RMK A01 T01200020  RH  050%=      5-min Rain = 0
KVP1 200552Z 19010KT 12/02 A2981 RMK A01 T01200020  RH  050%=      5-min Rain = 0
KVP1 200553Z 19010KT 12/02 A2981 RMK A01 T01190020  RH  051%=      5-min Rain = 0
KVP1 200554Z 19009KT 12/02 A2981 RMK A01 T01190020  RH  051%=      5-min Rain = 0
KVP1 200555Z 19009KT 12/02 A2981 RMK A01 T01180020  RH  051%=      5-min Rain = 0
KVP1 200556Z 19009KT 12/02 A2981 RMK A01 T01180020  RH  051%=      5-min Rain = 0
KVP1 200557Z 19009KT 12/02 A2981 RMK A01 T01170020  RH  051%=      5-min Rain = 0
KVP1 200558Z 19009KT 12/02 A2981 RMK A01 T01170021  RH  052%=      5-min Rain = 0
KVP1 200559Z 19009KT 12/02 A2981 RMK A01 T01170021  RH  052%=      5-min Rain = 0

Page generated in 0.1185 seconds.